Time,TemperatureF,DewpointF,PressureIn,WindDirection,WindDirectionDegrees,WindSpeedMPH,WindSpeedGustMPH,Humidity,HourlyPrecipIn,Conditions,Clouds,dailyrainin,SoftwareType,DateUTC
2013-03-15 00:01:00,37.0,11.9,0.00,ESE,117,4.0,7.6,35,0.00,,---,0.00,VWS V14.00,2013-03-15 06:01:00,
2013-03-15 00:02:00,37.2,12.1,0.00,ESE,102,5.8,7.6,35,0.00,,---,0.00,VWS V14.00,2013-03-15 06:02:00,
2013-03-15 00:03:00,37.2,12.1,0.00,ENE,70,11.0,11.0,35,0.00,,---,0.00,VWS V14.00,2013-03-15 06:03:00,
2013-03-15 00:06:00,37.2,12.1,0.00,SE,125,4.0,4.0,35,0.00,,---,0.00,VWS V14.00,2013-03-15 06:06:00,
2013-03-15 00:07:00,37.4,12.3,0.00,East,96,8.3,8.3,35,0.00,,---,0.00,VWS V14.00,2013-03-15 06:07:00,
2013-03-15 00:08:00,37.4,12.3,0.00,East,99,7.6,7.6,35,0.00,,---,0.00,VWS V14.00,2013-03-15 06:08:00,
2013-03-15 00:11:00,37.4,12.3,0.00,ESE,103,3.6,8.1,35,0.00,,---,0.00,VWS V14.00,2013-03-15 06:11:00,
2013-03-15 00:12:00,37.4,12.3,0.00,ESE,109,5.8,8.1,35,0.00,,---,0.00,VWS V14.00,2013-03-15 06:12:00,
2013-03-15 00:13:00,37.6,12.4,0.00,ESE,105,8.1,8.1,35,0.00,,---,0.00,VWS V14.00,2013-03-15 06:13:00,
2013-03-15 00:14:00,37.6,12.4,0.00,ESE,102,7.6,8.1,35,0.00,,---,0.00,VWS V14.00,2013-03-15 06:14:00,
2013-03-15 00:16:00,37.6,12.4,0.00,East,92,8.1,8.1,35,0.00,,---,0.00,VWS V14.00,2013-03-15 06:16:00,
2013-03-15 00:17:00,37.8,12.6,0.00,ESE,119,13.2,13.2,35,0.00,,---,0.00,VWS V14.00,2013-03-15 06:17:00,
2013-03-15 00:18:00,37.8,12.6,0.00,ESE,108,8.1,9.2,35,0.00,,---,0.00,VWS V14.00,2013-03-15 06:18:00,
2013-03-15 00:19:00,37.8,12.6,0.00,ESE,105,8.3,9.2,35,0.00,,---,0.00,VWS V14.00,2013-03-15 06:19:00,
2013-03-15 00:22:00,37.9,12.7,0.00,ESE,118,11.4,11.4,35,0.00,,---,0.00,VWS V14.00,2013-03-15 06:22:00,
2013-03-15 00:23:00,37.9,12.7,0.00,East,100,5.8,12.3,35,0.00,,---,0.00,VWS V14.00,2013-03-15 06:23:00,
2013-03-15 00:24:00,38.1,12.9,0.00,ENE,74,6.3,12.3,35,0.00,,---,0.00,VWS V14.00,2013-03-15 06:24:00,
2013-03-15 00:27:00,38.1,12.9,0.00,East,79,8.3,8.7,35,0.00,,---,0.00,VWS V14.00,2013-03-15 06:27:00,
2013-03-15 00:28:00,38.1,12.9,0.00,ESE,111,5.4,7.6,35,0.00,,---,0.00,VWS V14.00,2013-03-15 06:28:00,
2013-03-15 00:29:00,38.1,12.9,0.00,ESE,116,7.6,7.6,35,0.00,,---,0.00,VWS V14.00,2013-03-15 06:29:00,
2013-03-15 00:32:00,38.3,13.1,0.00,SE,127,8.1,8.1,35,0.00,,---,0.00,VWS V14.00,2013-03-15 06:32:00,
2013-03-15 00:34:00,38.3,13.1,0.00,ESE,119,10.1,10.1,35,0.00,,---,0.00,VWS V14.00,2013-03-15 06:34:00,
2013-03-15 00:37:00,38.5,12.6,0.00,East,86,6.7,10.1,34,0.00,,---,0.00,VWS V14.00,2013-03-15 06:37:00,
2013-03-15 00:38:00,38.5,12.6,0.00,SE,125,6.3,10.1,34,0.00,,---,0.00,VWS V14.00,2013-03-15 06:38:00,
2013-03-15 00:39:00,38.5,12.6,0.00,East,94,6.3,8.1,34,0.00,,---,0.00,VWS V14.00,2013-03-15 06:39:00,
2013-03-15 00:43:00,38.5,12.6,0.00,East,95,6.3,8.7,34,0.00,,---,0.00,VWS V14.00,2013-03-15 06:43:00,
2013-03-15 00:44:00,38.7,12.7,0.00,ESE,110,10.1,10.5,34,0.00,,---,0.00,VWS V14.00,2013-03-15 06:44:00,
2013-03-15 00:48:00,38.7,12.7,0.00,SSE,149,8.3,10.5,34,0.00,,---,0.00,VWS V14.00,2013-03-15 06:48:00,
2013-03-15 00:49:00,38.7,12.7,0.00,SE,145,10.5,10.5,34,0.00,,---,0.00,VWS V14.00,2013-03-15 06:49:00,
2013-03-15 00:53:00,38.8,12.9,0.00,SE,137,13.2,13.2,34,0.00,,---,0.00,VWS V14.00,2013-03-15 06:53:00,
2013-03-15 00:54:00,38.8,12.9,0.00,SE,126,16.3,16.3,34,0.00,,---,0.00,VWS V14.00,2013-03-15 06:54:00,
2013-03-15 00:55:00,38.8,12.9,0.00,ESE,104,5.8,11.9,34,0.00,,---,0.00,VWS V14.00,2013-03-15 06:55:00,
2013-03-15 00:58:00,39.0,13.0,0.00,ESE,122,7.6,8.3,34,0.00,,---,0.00,VWS V14.00,2013-03-15 06:58:00,
2013-03-15 00:59:00,39.0,13.0,0.00,SE,134,5.8,8.3,34,0.00,,---,0.00,VWS V14.00,2013-03-15 06:59:00,
2013-03-15 01:00:00,39.2,13.2,0.00,SE,140,8.7,8.7,34,0.00,,---,0.00,VWS V14.00,2013-03-15 07:00:00,
2013-03-15 01:03:00,39.2,13.2,0.00,SSE,148,7.6,8.7,34,0.00,,---,0.00,VWS V14.00,2013-03-15 07:03:00,
2013-03-15 01:04:00,39.2,13.2,0.00,East,88,12.3,12.3,34,0.00,,---,0.00,VWS V14.00,2013-03-15 07:04:00,
2013-03-15 01:05:00,39.2,13.2,0.00,ESE,117,12.3,12.3,34,0.00,,---,0.00,VWS V14.00,2013-03-15 07:05:00,
2013-03-15 01:08:00,39.4,13.4,0.00,SSE,147,8.1,10.5,34,0.00,,---,0.00,VWS V14.00,2013-03-15 07:08:00,
2013-03-15 01:09:00,39.4,13.4,0.00,SSE,162,3.1,10.5,34,0.00,,---,0.00,VWS V14.00,2013-03-15 07:09:00,
2013-03-15 01:11:00,39.4,13.4,0.00,SE,124,8.1,15.4,34,0.00,,---,0.00,VWS V14.00,2013-03-15 07:11:00,
2013-03-15 01:13:00,39.4,13.4,0.00,South,176,8.1,11.0,34,0.00,,---,0.00,VWS V14.00,2013-03-15 07:13:00,
2013-03-15 01:14:00,39.4,13.4,0.00,SE,138,7.6,11.0,34,0.00,,---,0.00,VWS V14.00,2013-03-15 07:14:00,
2013-03-15 01:15:00,39.6,13.5,0.00,ESE,115,10.1,11.0,34,0.00,,---,0.00,VWS V14.00,2013-03-15 07:15:00,
2013-03-15 01:17:00,39.6,13.5,0.00,ESE,117,8.1,12.3,34,0.00,,---,0.00,VWS V14.00,2013-03-15 07:17:00,
2013-03-15 01:18:00,39.6,13.5,0.00,SE,135,13.2,13.2,34,0.00,,---,0.00,VWS V14.00,2013-03-15 07:18:00,
2013-03-15 01:20:00,39.6,13.5,0.00,SE,141,6.3,7.6,34,0.00,,---,0.00,VWS V14.00,2013-03-15 07:20:00,
2013-03-15 01:22:00,39.6,13.5,0.00,SSE,160,7.6,12.3,34,0.00,,---,0.00,VWS V14.00,2013-03-15 07:22:00,
2013-03-15 01:24:00,39.7,13.7,0.00,SE,143,8.7,10.5,34,0.00,,---,0.00,VWS V14.00,2013-03-15 07:24:00,
2013-03-15 01:25:00,39.7,13.7,0.00,ESE,113,15.0,15.4,34,0.00,,---,0.00,VWS V14.00,2013-03-15 07:25:00,
2013-03-15 01:27:00,39.7,13.7,0.00,ESE,123,11.0,12.3,34,0.00,,---,0.00,VWS V14.00,2013-03-15 07:27:00,
2013-03-15 01:29:00,39.7,13.7,0.00,ESE,112,10.5,12.8,34,0.00,,---,0.00,VWS V14.00,2013-03-15 07:29:00,
2013-03-15 01:30:00,39.7,14.3,0.00,ESE,102,13.2,13.2,35,0.00,,---,0.00,VWS V14.00,2013-03-15 07:30:00,
2013-03-15 01:33:00,39.7,14.3,0.00,ESE,110,8.3,10.1,35,0.00,,---,0.00,VWS V14.00,2013-03-15 07:33:00,
2013-03-15 01:34:00,39.7,14.3,0.00,SE,142,10.5,13.6,35,0.00,,---,0.00,VWS V14.00,2013-03-15 07:34:00,
2013-03-15 01:35:00,39.7,14.3,0.00,ENE,58,11.0,17.9,35,0.00,,---,0.00,VWS V14.00,2013-03-15 07:35:00,
2013-03-15 01:38:00,39.7,14.3,0.00,ESE,117,16.8,16.8,35,0.00,,---,0.00,VWS V14.00,2013-03-15 07:38:00,
2013-03-15 01:39:00,39.7,14.3,0.00,ESE,109,12.8,12.8,35,0.00,,---,0.00,VWS V14.00,2013-03-15 07:39:00,
2013-03-15 01:40:00,39.7,14.3,0.00,SE,146,6.3,12.8,35,0.00,,---,0.00,VWS V14.00,2013-03-15 07:40:00,
2013-03-15 01:41:00,39.7,14.3,0.00,SSE,148,9.2,13.2,35,0.00,,---,0.00,VWS V14.00,2013-03-15 07:41:00,
2013-03-15 01:43:00,39.7,14.3,0.00,ESE,117,13.2,13.2,35,0.00,,---,0.00,VWS V14.00,2013-03-15 07:43:00,
2013-03-15 01:45:00,39.7,14.3,0.00,ESE,109,12.8,16.8,35,0.00,,---,0.00,VWS V14.00,2013-03-15 07:45:00,
2013-03-15 01:46:00,39.7,14.3,0.00,SE,131,12.8,14.5,35,0.00,,---,0.00,VWS V14.00,2013-03-15 07:46:00,
2013-03-15 01:48:00,39.7,14.3,0.00,ESE,109,9.6,10.1,35,0.00,,---,0.00,VWS V14.00,2013-03-15 07:48:00,
2013-03-15 01:50:00,39.7,14.3,0.00,ESE,112,11.9,16.8,35,0.00,,---,0.00,VWS V14.00,2013-03-15 07:50:00,
2013-03-15 01:51:00,39.7,14.3,0.00,East,88,8.1,10.5,35,0.00,,---,0.00,VWS V14.00,2013-03-15 07:51:00,
2013-03-15 01:53:00,39.6,14.2,0.00,ESE,115,10.5,10.5,35,0.00,,---,0.00,VWS V14.00,2013-03-15 07:53:00,
2013-03-15 01:55:00,39.6,14.2,0.00,ESE,109,10.5,12.8,35,0.00,,---,0.00,VWS V14.00,2013-03-15 07:55:00,
2013-03-15 01:56:00,39.6,14.2,0.00,SE,127,8.7,10.5,35,0.00,,---,0.00,VWS V14.00,2013-03-15 07:56:00,
2013-03-15 01:58:00,39.6,14.2,0.00,ESE,116,8.1,11.0,35,0.00,,---,0.00,VWS V14.00,2013-03-15 07:58:00,
2013-03-15 02:00:00,39.4,14.0,0.00,ESE,113,5.4,10.1,35,0.00,,---,0.00,VWS V14.00,2013-03-15 08:00:00,
2013-03-15 02:01:00,39.4,14.0,0.00,ENE,72,6.3,7.6,35,0.00,,---,0.00,VWS V14.00,2013-03-15 08:01:00,
2013-03-15 02:03:00,39.4,14.0,0.00,ESE,117,7.6,7.6,35,0.00,,---,0.00,VWS V14.00,2013-03-15 08:03:00,
2013-03-15 02:05:00,39.4,14.0,0.00,SE,130,4.9,4.9,35,0.00,,---,0.00,VWS V14.00,2013-03-15 08:05:00,
2013-03-15 02:06:00,39.4,14.0,0.00,ESE,118,4.0,4.0,35,0.00,,---,0.00,VWS V14.00,2013-03-15 08:06:00,
2013-03-15 02:09:00,39.4,14.0,0.00,ESE,122,3.1,3.6,35,0.00,,---,0.00,VWS V14.00,2013-03-15 08:09:00,
2013-03-15 02:10:00,39.2,13.9,0.00,ESE,113,4.0,4.0,35,0.00,,---,0.00,VWS V14.00,2013-03-15 08:10:00,
2013-03-15 02:11:00,39.2,13.9,0.00,ESE,108,4.9,6.3,35,0.00,,---,0.00,VWS V14.00,2013-03-15 08:11:00,
2013-03-15 02:14:00,39.2,13.9,0.00,East,95,4.0,4.0,35,0.00,,---,0.00,VWS V14.00,2013-03-15 08:14:00,
2013-03-15 02:15:00,39.2,13.9,0.00,ESE,113,2.7,3.1,35,0.00,,---,0.00,VWS V14.00,2013-03-15 08:15:00,
2013-03-15 02:16:00,39.2,13.9,0.00,ESE,113,2.7,3.1,35,0.00,,---,0.00,VWS V14.00,2013-03-15 08:16:00,
2013-03-15 02:19:00,39.2,13.9,0.00,SE,125,2.7,3.1,35,0.00,,---,0.00,VWS V14.00,2013-03-15 08:19:00,
2013-03-15 02:20:00,39.0,13.7,0.00,SE,145,3.1,4.0,35,0.00,,---,0.00,VWS V14.00,2013-03-15 08:20:00,
2013-03-15 02:21:00,39.0,13.7,0.00,East,92,3.1,4.0,35,0.00,,---,0.00,VWS V14.00,2013-03-15 08:21:00,
2013-03-15 02:22:00,39.0,13.7,0.00,SE,143,2.2,3.6,35,0.00,,---,0.00,VWS V14.00,2013-03-15 08:22:00,
2013-03-15 02:24:00,39.0,13.7,0.00,SE,143,0.0,0.0,35,0.00,,---,0.00,VWS V14.00,2013-03-15 08:24:00,
2013-03-15 02:26:00,38.8,13.5,0.00,SE,143,0.0,0.0,35,0.00,,---,0.00,VWS V14.00,2013-03-15 08:26:00,
2013-03-15 02:29:00,38.8,13.5,0.00,SE,142,0.0,0.0,35,0.00,,---,0.00,VWS V14.00,2013-03-15 08:29:00,
2013-03-15 02:31:00,38.8,13.5,0.00,South,187,0.0,0.0,35,0.00,,---,0.00,VWS V14.00,2013-03-15 08:31:00,
2013-03-15 02:32:00,38.8,13.5,0.00,South,187,0.0,0.0,35,0.00,,---,0.00,VWS V14.00,2013-03-15 08:32:00,
2013-03-15 02:34:00,38.7,13.4,0.00,South,185,0.0,0.0,35,0.00,,---,0.00,VWS V14.00,2013-03-15 08:34:00,
2013-03-15 02:36:00,38.7,13.4,0.00,South,186,0.0,0.0,35,0.00,,---,0.00,VWS V14.00,2013-03-15 08:36:00,
2013-03-15 02:37:00,38.7,13.4,0.00,South,186,0.0,0.0,35,0.00,,---,0.00,VWS V14.00,2013-03-15 08:37:00,
2013-03-15 02:39:00,38.7,13.4,0.00,South,185,0.0,0.0,35,0.00,,---,0.00,VWS V14.00,2013-03-15 08:39:00,
2013-03-15 02:42:00,38.5,13.2,0.00,South,186,0.0,0.0,35,0.00,,---,0.00,VWS V14.00,2013-03-15 08:42:00,
2013-03-15 02:44:00,38.5,13.2,0.00,South,187,0.0,0.0,35,0.00,,---,0.00,VWS V14.00,2013-03-15 08:44:00,
2013-03-15 02:47:00,38.5,13.2,0.00,South,182,0.0,0.0,35,0.00,,---,0.00,VWS V14.00,2013-03-15 08:47:00,
2013-03-15 02:49:00,38.3,13.1,0.00,South,187,0.0,0.0,35,0.00,,---,0.00,VWS V14.00,2013-03-15 08:49:00,
2013-03-15 02:52:00,38.3,13.7,0.00,South,187,0.0,0.0,36,0.00,,---,0.00,VWS V14.00,2013-03-15 08:52:00,
2013-03-15 02:54:00,38.1,13.5,0.00,South,187,0.0,0.0,36,0.00,,---,0.00,VWS V14.00,2013-03-15 08:54:00,
2013-03-15 02:57:00,38.1,13.5,0.00,South,187,0.0,0.0,36,0.00,,---,0.00,VWS V14.00,2013-03-15 08:57:00,
2013-03-15 02:59:00,38.1,13.5,0.00,ESE,113,0.0,2.2,36,0.00,,---,0.00,VWS V14.00,2013-03-15 08:59:00,
2013-03-15 03:02:00,37.9,13.4,0.00,ESE,113,0.0,0.0,36,0.00,,---,0.00,VWS V14.00,2013-03-15 09:02:00,
2013-03-15 03:04:00,37.9,13.4,0.00,ESE,113,0.0,0.0,36,0.00,,---,0.00,VWS V14.00,2013-03-15 09:04:00,
2013-03-15 03:07:00,37.8,13.2,0.00,ESE,113,0.0,0.0,36,0.00,,---,0.00,VWS V14.00,2013-03-15 09:07:00,
2013-03-15 03:08:00,37.8,13.2,0.00,ESE,113,0.0,0.0,36,0.00,,---,0.00,VWS V14.00,2013-03-15 09:08:00,
2013-03-15 03:09:00,37.8,13.2,0.00,ESE,113,0.0,0.0,36,0.00,,---,0.00,VWS V14.00,2013-03-15 09:09:00,
2013-03-15 03:12:00,37.6,13.1,0.00,ESE,113,0.0,0.0,36,0.00,,---,0.00,VWS V14.00,2013-03-15 09:12:00,
2013-03-15 03:13:00,37.6,13.1,0.00,ESE,113,0.0,0.0,36,0.00,,---,0.00,VWS V14.00,2013-03-15 09:13:00,
2013-03-15 03:14:00,37.6,13.1,0.00,ESE,113,0.0,0.0,36,0.00,,---,0.00,VWS V14.00,2013-03-15 09:14:00,
2013-03-15 03:17:00,37.6,13.1,0.00,ESE,113,0.0,0.0,36,0.00,,---,0.00,VWS V14.00,2013-03-15 09:17:00,
2013-03-15 03:18:00,37.4,12.9,0.00,ESE,111,0.0,0.0,36,0.00,,---,0.00,VWS V14.00,2013-03-15 09:18:00,
2013-03-15 03:19:00,37.4,12.9,0.00,ESE,113,0.0,0.0,36,0.00,,---,0.00,VWS V14.00,2013-03-15 09:19:00,
2013-03-15 03:23:00,37.4,12.9,0.00,South,179,0.0,0.0,36,0.00,,---,0.00,VWS V14.00,2013-03-15 09:23:00,
2013-03-15 03:25:00,37.2,13.4,0.00,South,186,0.0,0.0,37,0.00,,---,0.00,VWS V14.00,2013-03-15 09:25:00,
2013-03-15 03:28:00,37.0,13.2,0.00,South,184,0.0,0.0,37,0.00,,---,0.00,VWS V14.00,2013-03-15 09:28:00,
2013-03-15 03:30:00,37.0,13.2,0.00,South,185,0.0,0.0,37,0.00,,---,0.00,VWS V14.00,2013-03-15 09:30:00,
2013-03-15 03:33:00,37.0,13.2,0.00,South,185,0.0,0.0,37,0.00,,---,0.00,VWS V14.00,2013-03-15 09:33:00,
2013-03-15 03:35:00,36.9,13.0,0.00,South,183,0.0,0.0,37,0.00,,---,0.00,VWS V14.00,2013-03-15 09:35:00,
2013-03-15 03:38:00,36.9,13.0,0.00,ESE,113,0.0,0.0,37,0.00,,---,0.00,VWS V14.00,2013-03-15 09:38:00,
2013-03-15 03:39:00,36.9,13.0,0.00,ESE,117,0.0,0.0,37,0.00,,---,0.00,VWS V14.00,2013-03-15 09:39:00,
2013-03-15 03:40:00,36.7,12.9,0.00,ESE,118,0.0,0.0,37,0.00,,---,0.00,VWS V14.00,2013-03-15 09:40:00,
2013-03-15 03:43:00,36.7,12.9,0.00,ESE,117,0.0,0.0,37,0.00,,---,0.00,VWS V14.00,2013-03-15 09:43:00,
2013-03-15 03:44:00,36.7,12.9,0.00,ESE,115,0.0,0.0,37,0.00,,---,0.00,VWS V14.00,2013-03-15 09:44:00,
2013-03-15 03:45:00,36.5,12.7,0.00,ESE,117,0.0,0.0,37,0.00,,---,0.00,VWS V14.00,2013-03-15 09:45:00,
2013-03-15 03:48:00,36.5,12.7,0.00,ESE,117,0.0,0.0,37,0.00,,---,0.00,VWS V14.00,2013-03-15 09:48:00,
2013-03-15 03:49:00,36.5,12.7,0.00,ESE,117,0.0,0.0,37,0.00,,---,0.00,VWS V14.00,2013-03-15 09:49:00,
2013-03-15 03:50:00,36.3,12.6,0.00,ESE,117,0.0,0.0,37,0.00,,---,0.00,VWS V14.00,2013-03-15 09:50:00,
2013-03-15 03:53:00,36.3,13.2,0.00,ESE,117,4.0,4.0,38,0.00,,---,0.00,VWS V14.00,2013-03-15 09:53:00,
2013-03-15 03:54:00,36.1,13.0,0.00,ESE,116,3.6,4.0,38,0.00,,---,0.00,VWS V14.00,2013-03-15 09:54:00,
2013-03-15 03:55:00,36.1,13.0,0.00,ESE,116,0.0,2.7,38,0.00,,---,0.00,VWS V14.00,2013-03-15 09:55:00,
2013-03-15 03:58:00,36.1,13.0,0.00,SE,138,2.7,3.1,38,0.00,,---,0.00,VWS V14.00,2013-03-15 09:58:00,
2013-03-15 03:59:00,36.1,13.0,0.00,SE,138,0.0,3.1,38,0.00,,---,0.00,VWS V14.00,2013-03-15 09:59:00,
2013-03-15 04:00:00,36.1,13.0,0.00,SE,138,0.0,0.0,38,0.00,,---,0.00,VWS V14.00,2013-03-15 10:00:00,
2013-03-15 04:03:00,36.0,12.8,0.00,SE,138,0.0,0.0,38,0.00,,---,0.00,VWS V14.00,2013-03-15 10:03:00,
2013-03-15 04:04:00,36.0,12.8,0.00,SE,138,0.0,0.0,38,0.00,,---,0.00,VWS V14.00,2013-03-15 10:04:00,
2013-03-15 04:05:00,36.0,12.8,0.00,SE,138,0.0,0.0,38,0.00,,---,0.00,VWS V14.00,2013-03-15 10:05:00,
2013-03-15 04:08:00,35.8,12.7,0.00,SE,138,0.0,0.0,38,0.00,,---,0.00,VWS V14.00,2013-03-15 10:08:00,
2013-03-15 04:09:00,35.8,12.7,0.00,SE,138,0.0,0.0,38,0.00,,---,0.00,VWS V14.00,2013-03-15 10:09:00,
2013-03-15 04:10:00,35.8,12.7,0.00,SE,134,0.0,0.0,38,0.00,,---,0.00,VWS V14.00,2013-03-15 10:10:00,
2013-03-15 04:14:00,35.6,13.1,0.00,SE,138,0.0,0.0,39,0.00,,---,0.00,VWS V14.00,2013-03-15 10:14:00,
2013-03-15 04:15:00,35.6,13.1,0.00,SE,137,0.0,0.0,39,0.00,,---,0.00,VWS V14.00,2013-03-15 10:15:00,
2013-03-15 04:19:00,35.4,13.5,0.00,SE,138,0.0,0.0,40,0.00,,---,0.00,VWS V14.00,2013-03-15 10:19:00,
2013-03-15 04:20:00,35.4,13.5,0.00,SE,138,0.0,0.0,40,0.00,,---,0.00,VWS V14.00,2013-03-15 10:20:00,
2013-03-15 04:24:00,35.4,13.5,0.00,SE,138,0.0,0.0,40,0.00,,---,0.00,VWS V14.00,2013-03-15 10:24:00,
2013-03-15 04:25:00,35.4,13.5,0.00,SE,139,0.0,0.0,40,0.00,,---,0.00,VWS V14.00,2013-03-15 10:25:00,
2013-03-15 04:29:00,35.2,13.4,0.00,SW,227,0.0,0.0,40,0.00,,---,0.00,VWS V14.00,2013-03-15 10:29:00,
2013-03-15 04:30:00,35.2,13.4,0.00,SW,226,0.0,0.0,40,0.00,,---,0.00,VWS V14.00,2013-03-15 10:30:00,
2013-03-15 04:34:00,35.1,13.2,0.00,NW,304,5.4,5.4,40,0.00,,---,0.00,VWS V14.00,2013-03-15 10:34:00,
2013-03-15 04:35:00,35.1,13.2,0.00,West,280,0.0,3.6,40,0.00,,---,0.00,VWS V14.00,2013-03-15 10:35:00,
2013-03-15 04:39:00,35.2,13.4,0.00,WNW,301,0.0,0.0,40,0.00,,---,0.00,VWS V14.00,2013-03-15 10:39:00,
2013-03-15 04:40:00,35.1,13.2,0.00,WNW,299,0.0,0.0,40,0.00,,---,0.00,VWS V14.00,2013-03-15 10:40:00,
2013-03-15 04:44:00,35.1,13.2,0.00,WNW,297,0.0,0.0,40,0.00,,---,0.00,VWS V14.00,2013-03-15 10:44:00,
2013-03-15 04:45:00,35.1,13.2,0.00,WNW,300,0.0,0.0,40,0.00,,---,0.00,VWS V14.00,2013-03-15 10:45:00,
2013-03-15 04:49:00,35.1,13.2,0.00,WNW,302,0.0,0.0,40,0.00,,---,0.00,VWS V14.00,2013-03-15 10:49:00,
2013-03-15 04:50:00,35.1,13.2,0.00,WNW,294,0.0,0.0,40,0.00,,---,0.00,VWS V14.00,2013-03-15 10:50:00,
2013-03-15 04:51:00,35.1,13.2,0.00,WNW,293,0.0,0.0,40,0.00,,---,0.00,VWS V14.00,2013-03-15 10:51:00,
2013-03-15 04:54:00,34.9,13.0,0.00,WNW,296,0.0,0.0,40,0.00,,---,0.00,VWS V14.00,2013-03-15 10:54:00,
2013-03-15 04:55:00,34.9,13.0,0.00,WNW,294,0.0,0.0,40,0.00,,---,0.00,VWS V14.00,2013-03-15 10:55:00,
2013-03-15 04:56:00,34.9,13.0,0.00,WNW,296,0.0,0.0,40,0.00,,---,0.00,VWS V14.00,2013-03-15 10:56:00,
2013-03-15 04:59:00,34.7,12.9,0.00,WNW,296,0.0,0.0,40,0.00,,---,0.00,VWS V14.00,2013-03-15 10:59:00,
2013-03-15 05:00:00,34.7,12.9,0.00,WNW,287,0.0,0.0,40,0.00,,---,0.00,VWS V14.00,2013-03-15 11:00:00,
2013-03-15 05:01:00,34.7,12.9,0.00,WNW,296,0.0,0.0,40,0.00,,---,0.00,VWS V14.00,2013-03-15 11:01:00,
2013-03-15 05:04:00,34.7,12.9,0.00,WNW,296,0.0,0.0,40,0.00,,---,0.00,VWS V14.00,2013-03-15 11:04:00,
2013-03-15 05:05:00,34.5,12.7,0.00,WNW,297,2.7,3.1,40,0.00,,---,0.00,VWS V14.00,2013-03-15 11:05:00,
2013-03-15 05:06:00,34.5,12.7,0.00,WNW,298,2.7,2.7,40,0.00,,---,0.00,VWS V14.00,2013-03-15 11:06:00,
2013-03-15 05:07:00,34.5,12.7,0.00,WNW,300,3.1,3.1,40,0.00,,---,0.00,VWS V14.00,2013-03-15 11:07:00,
2013-03-15 05:09:00,34.5,12.7,0.00,WNW,299,0.0,0.0,40,0.00,,---,0.00,VWS V14.00,2013-03-15 11:09:00,
2013-03-15 05:11:00,34.5,12.7,0.00,WNW,300,0.0,0.0,40,0.00,,---,0.00,VWS V14.00,2013-03-15 11:11:00,
2013-03-15 05:12:00,34.5,12.7,0.00,WNW,300,0.0,0.0,40,0.00,,---,0.00,VWS V14.00,2013-03-15 11:12:00,
2013-03-15 05:14:00,34.5,12.7,0.00,WNW,300,0.0,0.0,40,0.00,,---,0.00,VWS V14.00,2013-03-15 11:14:00,
2013-03-15 05:16:00,34.5,12.7,0.00,WNW,300,0.0,0.0,40,0.00,,---,0.00,VWS V14.00,2013-03-15 11:16:00,
2013-03-15 05:17:00,34.5,12.7,0.00,WNW,300,3.1,3.1,40,0.00,,---,0.00,VWS V14.00,2013-03-15 11:17:00,
2013-03-15 05:19:00,34.5,12.7,0.00,WNW,300,0.0,0.0,40,0.00,,---,0.00,VWS V14.00,2013-03-15 11:19:00,
2013-03-15 05:22:00,34.5,12.7,0.00,WNW,300,0.0,0.0,40,0.00,,---,0.00,VWS V14.00,2013-03-15 11:22:00,
2013-03-15 05:24:00,34.5,12.7,0.00,WNW,300,0.0,0.0,40,0.00,,---,0.00,VWS V14.00,2013-03-15 11:24:00,
2013-03-15 05:27:00,34.5,12.7,0.00,WNW,300,0.0,0.0,40,0.00,,---,0.00,VWS V14.00,2013-03-15 11:27:00,
2013-03-15 05:30:00,34.5,12.7,0.00,WNW,298,0.0,0.0,40,0.00,,---,0.00,VWS V14.00,2013-03-15 11:30:00,
2013-03-15 05:32:00,34.3,12.5,0.00,WNW,296,0.0,0.0,40,0.00,,---,0.00,VWS V14.00,2013-03-15 11:32:00,
2013-03-15 05:35:00,34.3,12.5,0.00,WNW,295,0.0,0.0,40,0.00,,---,0.00,VWS V14.00,2013-03-15 11:35:00,
2013-03-15 05:37:00,34.3,12.5,0.00,WNW,295,0.0,0.0,40,0.00,,---,0.00,VWS V14.00,2013-03-15 11:37:00,
2013-03-15 05:40:00,34.3,12.5,0.00,WNW,295,0.0,0.0,40,0.00,,---,0.00,VWS V14.00,2013-03-15 11:40:00,
2013-03-15 05:42:00,34.3,12.5,0.00,WNW,295,0.0,0.0,40,0.00,,---,0.00,VWS V14.00,2013-03-15 11:42:00,
2013-03-15 05:45:00,34.2,12.4,0.00,WNW,295,0.0,0.0,40,0.00,,---,0.00,VWS V14.00,2013-03-15 11:45:00,
2013-03-15 05:47:00,34.2,12.4,0.00,WNW,295,0.0,0.0,40,0.00,,---,0.00,VWS V14.00,2013-03-15 11:47:00,
2013-03-15 05:50:00,34.3,12.5,0.00,WNW,295,0.0,0.0,40,0.00,,---,0.00,VWS V14.00,2013-03-15 11:50:00,
2013-03-15 05:52:00,34.2,12.4,0.00,WNW,295,0.0,0.0,40,0.00,,---,0.00,VWS V14.00,2013-03-15 11:52:00,
2013-03-15 05:53:00,34.2,12.4,0.00,WNW,292,0.0,0.0,40,0.00,,---,0.00,VWS V14.00,2013-03-15 11:53:00,
2013-03-15 05:55:00,34.2,12.4,0.00,WNW,295,0.0,0.0,40,0.00,,---,0.00,VWS V14.00,2013-03-15 11:55:00,
2013-03-15 05:57:00,34.2,12.4,0.00,WNW,295,0.0,0.0,40,0.00,,---,0.00,VWS V14.00,2013-03-15 11:57:00,
2013-03-15 05:58:00,34.2,12.4,0.00,WNW,295,0.0,0.0,40,0.00,,---,0.00,VWS V14.00,2013-03-15 11:58:00,
2013-03-15 06:00:00,34.0,12.2,0.00,WNW,295,0.0,0.0,40,0.00,,---,0.00,VWS V14.00,2013-03-15 12:00:00,
2013-03-15 06:02:00,34.0,12.2,0.00,WNW,295,0.0,0.0,40,0.00,,---,0.00,VWS V14.00,2013-03-15 12:02:00,
2013-03-15 06:03:00,34.0,12.2,0.00,WNW,295,0.0,0.0,40,0.00,,---,0.00,VWS V14.00,2013-03-15 12:03:00,
2013-03-15 06:05:00,34.0,12.2,0.00,WNW,295,0.0,0.0,40,0.00,,---,0.00,VWS V14.00,2013-03-15 12:05:00,
2013-03-15 06:07:00,34.0,12.2,0.00,WNW,295,0.0,0.0,40,0.00,,---,0.00,VWS V14.00,2013-03-15 12:07:00,
2013-03-15 06:08:00,34.0,12.2,0.00,WNW,293,0.0,0.0,40,0.00,,---,0.00,VWS V14.00,2013-03-15 12:08:00,
2013-03-15 06:10:00,34.0,12.2,0.00,WNW,294,0.0,0.0,40,0.00,,---,0.00,VWS V14.00,2013-03-15 12:10:00,
2013-03-15 06:12:00,34.0,12.2,0.00,WNW,286,0.0,0.0,40,0.00,,---,0.00,VWS V14.00,2013-03-15 12:12:00,
2013-03-15 06:13:00,33.8,12.1,0.00,WNW,295,0.0,0.0,40,0.00,,---,0.00,VWS V14.00,2013-03-15 12:13:00,
2013-03-15 06:16:00,33.8,12.1,0.00,WNW,295,0.0,0.0,40,0.00,,---,0.00,VWS V14.00,2013-03-15 12:16:00,
2013-03-15 06:17:00,33.8,12.1,0.00,WNW,295,0.0,0.0,40,0.00,,---,0.00,VWS V14.00,2013-03-15 12:17:00,
2013-03-15 06:18:00,33.8,12.1,0.00,WNW,295,0.0,0.0,40,0.00,,---,0.00,VWS V14.00,2013-03-15 12:18:00,
2013-03-15 06:21:00,33.8,12.6,0.00,WNW,294,0.0,0.0,41,0.00,,---,0.00,VWS V14.00,2013-03-15 12:21:00,
2013-03-15 06:23:00,33.8,12.6,0.00,WNW,295,0.0,0.0,41,0.00,,---,0.00,VWS V14.00,2013-03-15 12:23:00,
2013-03-15 06:26:00,33.8,12.6,0.00,WNW,295,0.0,0.0,41,0.00,,---,0.00,VWS V14.00,2013-03-15 12:26:00,
2013-03-15 06:28:00,33.6,12.4,0.00,WNW,302,0.0,3.1,41,0.00,,---,0.00,VWS V14.00,2013-03-15 12:28:00,
2013-03-15 06:31:00,33.6,12.4,0.00,WNW,299,0.0,0.0,41,0.00,,---,0.00,VWS V14.00,2013-03-15 12:31:00,
2013-03-15 06:33:00,33.6,12.4,0.00,WNW,302,0.0,0.0,41,0.00,,---,0.00,VWS V14.00,2013-03-15 12:33:00,
2013-03-15 06:36:00,33.6,12.4,0.00,WNW,302,0.0,0.0,41,0.00,,---,0.00,VWS V14.00,2013-03-15 12:36:00,
2013-03-15 06:38:00,33.6,12.4,0.00,South,170,2.2,4.9,41,0.00,,---,0.00,VWS V14.00,2013-03-15 12:38:00,
2013-03-15 06:41:00,33.4,12.3,0.00,South,171,0.0,0.0,41,0.00,,---,0.00,VWS V14.00,2013-03-15 12:41:00,
2013-03-15 06:43:00,33.4,12.3,0.00,SW,233,0.0,0.0,41,0.00,,---,0.00,VWS V14.00,2013-03-15 12:43:00,
2013-03-15 06:46:00,33.3,12.1,0.00,SW,234,0.0,0.0,41,0.00,,---,0.00,VWS V14.00,2013-03-15 12:46:00,
2013-03-15 06:48:00,33.3,12.1,0.00,WSW,237,0.0,0.0,41,0.00,,---,0.00,VWS V14.00,2013-03-15 12:48:00,
2013-03-15 06:49:00,33.3,12.1,0.00,WSW,237,0.0,0.0,41,0.00,,---,0.00,VWS V14.00,2013-03-15 12:49:00,
2013-03-15 06:51:00,33.3,12.1,0.00,WSW,237,0.0,0.0,41,0.00,,---,0.00,VWS V14.00,2013-03-15 12:51:00,
2013-03-15 06:53:00,33.3,12.1,0.00,WSW,237,0.0,0.0,41,0.00,,---,0.00,VWS V14.00,2013-03-15 12:53:00,
2013-03-15 06:54:00,33.3,12.1,0.00,SW,230,0.0,0.0,41,0.00,,---,0.00,VWS V14.00,2013-03-15 12:54:00,
2013-03-15 06:56:00,33.1,12.0,0.00,WSW,238,0.0,0.0,41,0.00,,---,0.00,VWS V14.00,2013-03-15 12:56:00,
2013-03-15 06:58:00,33.1,12.0,0.00,WSW,245,0.0,0.0,41,0.00,,---,0.00,VWS V14.00,2013-03-15 12:58:00,
2013-03-15 06:59:00,33.1,12.0,0.00,WSW,245,0.0,0.0,41,0.00,,---,0.00,VWS V14.00,2013-03-15 12:59:00,
2013-03-15 07:01:00,33.1,12.0,0.00,WSW,245,0.0,0.0,41,0.00,,---,0.00,VWS V14.00,2013-03-15 13:01:00,
2013-03-15 07:03:00,33.1,12.0,0.00,WSW,245,0.0,0.0,41,0.00,,---,0.00,VWS V14.00,2013-03-15 13:03:00,
2013-03-15 07:04:00,33.1,12.0,0.00,WSW,245,0.0,0.0,41,0.00,,---,0.00,VWS V14.00,2013-03-15 13:04:00,
2013-03-15 07:07:00,33.1,12.0,0.00,WSW,245,0.0,0.0,41,0.00,,---,0.00,VWS V14.00,2013-03-15 13:07:00,
2013-03-15 07:08:00,33.1,12.0,0.00,WSW,245,0.0,0.0,41,0.00,,---,0.00,VWS V14.00,2013-03-15 13:08:00,
2013-03-15 07:09:00,33.1,12.0,0.00,WSW,245,0.0,0.0,41,0.00,,---,0.00,VWS V14.00,2013-03-15 13:09:00,
2013-03-15 07:12:00,33.1,12.0,0.00,WSW,245,0.0,0.0,41,0.00,,---,0.00,VWS V14.00,2013-03-15 13:12:00,
2013-03-15 07:13:00,32.9,11.8,0.00,WSW,245,0.0,0.0,41,0.00,,---,0.00,VWS V14.00,2013-03-15 13:13:00,
2013-03-15 07:14:00,32.9,11.8,0.00,WSW,245,0.0,0.0,41,0.00,,---,0.00,VWS V14.00,2013-03-15 13:14:00,
2013-03-15 07:17:00,32.9,11.8,0.00,WSW,245,0.0,0.0,41,0.00,,---,0.00,VWS V14.00,2013-03-15 13:17:00,
2013-03-15 07:19:00,32.9,11.8,0.00,WNW,302,0.0,0.0,41,0.00,,---,0.00,VWS V14.00,2013-03-15 13:19:00,
2013-03-15 07:22:00,32.7,11.6,0.00,WNW,302,0.0,0.0,41,0.00,,---,0.00,VWS V14.00,2013-03-15 13:22:00,
2013-03-15 07:24:00,32.7,11.6,0.00,WNW,302,0.0,0.0,41,0.00,,---,0.00,VWS V14.00,2013-03-15 13:24:00,
2013-03-15 07:27:00,32.7,11.6,0.00,WNW,302,0.0,0.0,41,0.00,,---,0.00,VWS V14.00,2013-03-15 13:27:00,
2013-03-15 07:29:00,32.7,11.6,0.00,WNW,302,0.0,0.0,41,0.00,,---,0.00,VWS V14.00,2013-03-15 13:29:00,
2013-03-15 07:32:00,32.7,11.6,0.00,WNW,301,0.0,0.0,41,0.00,,---,0.00,VWS V14.00,2013-03-15 13:32:00,
2013-03-15 07:34:00,32.7,11.6,0.00,WNW,301,0.0,0.0,41,0.00,,---,0.00,VWS V14.00,2013-03-15 13:34:00,
2013-03-15 07:37:00,32.7,11.6,0.00,WNW,302,0.0,0.0,41,0.00,,---,0.00,VWS V14.00,2013-03-15 13:37:00,
2013-03-15 07:39:00,32.7,11.6,0.00,WNW,301,0.0,0.0,41,0.00,,---,0.00,VWS V14.00,2013-03-15 13:39:00,
2013-03-15 07:43:00,32.5,11.5,0.00,WNW,302,0.0,0.0,41,0.00,,---,0.00,VWS V14.00,2013-03-15 13:43:00,
2013-03-15 07:44:00,32.5,11.5,0.00,WNW,302,0.0,0.0,41,0.00,,---,0.00,VWS V14.00,2013-03-15 13:44:00,
2013-03-15 07:45:00,32.5,11.5,0.00,WNW,302,0.0,0.0,41,0.00,,---,0.00,VWS V14.00,2013-03-15 13:45:00,
2013-03-15 07:48:00,32.5,11.5,0.00,WNW,302,0.0,0.0,41,0.00,,---,0.00,VWS V14.00,2013-03-15 13:48:00,
2013-03-15 07:49:00,32.5,11.5,0.00,WNW,302,0.0,0.0,41,0.00,,---,0.00,VWS V14.00,2013-03-15 13:49:00,
2013-03-15 07:50:00,32.5,11.5,0.00,WNW,302,0.0,0.0,41,0.00,,---,0.00,VWS V14.00,2013-03-15 13:50:00,
2013-03-15 07:53:00,32.5,11.5,0.00,ESE,106,0.0,0.0,41,0.00,,---,0.00,VWS V14.00,2013-03-15 13:53:00,
2013-03-15 07:54:00,32.5,11.5,0.00,ESE,109,0.0,0.0,41,0.00,,---,0.00,VWS V14.00,2013-03-15 13:54:00,
2013-03-15 07:55:00,32.5,11.5,0.00,ESE,109,0.0,0.0,41,0.00,,---,0.00,VWS V14.00,2013-03-15 13:55:00,
2013-03-15 07:58:00,32.5,11.5,0.00,ESE,105,0.0,0.0,41,0.00,,---,0.00,VWS V14.00,2013-03-15 13:58:00,
2013-03-15 07:59:00,32.5,11.5,0.00,South,173,0.0,0.0,41,0.00,,---,0.00,VWS V14.00,2013-03-15 13:59:00,
2013-03-15 08:00:00,32.5,11.5,0.00,SSE,168,0.0,0.0,41,0.00,,---,0.00,VWS V14.00,2013-03-15 14:00:00,
2013-03-15 08:03:00,32.5,11.5,0.00,East,93,0.0,4.9,41,0.00,,---,0.00,VWS V14.00,2013-03-15 14:03:00,
2013-03-15 08:05:00,32.4,11.3,0.00,East,97,0.0,0.0,41,0.00,,---,0.00,VWS V14.00,2013-03-15 14:05:00,
2013-03-15 08:08:00,32.4,11.3,0.00,East,96,0.0,0.0,41,0.00,,---,0.00,VWS V14.00,2013-03-15 14:08:00,
2013-03-15 08:10:00,32.4,11.3,0.00,East,96,0.0,0.0,41,0.00,,---,0.00,VWS V14.00,2013-03-15 14:10:00,
2013-03-15 08:13:00,32.4,11.3,0.00,East,96,0.0,0.0,41,0.00,,---,0.00,VWS V14.00,2013-03-15 14:13:00,
2013-03-15 08:15:00,32.4,11.3,0.00,East,95,0.0,0.0,41,0.00,,---,0.00,VWS V14.00,2013-03-15 14:15:00,
2013-03-15 08:18:00,32.4,11.3,0.00,East,96,2.2,2.2,41,0.00,,---,0.00,VWS V14.00,2013-03-15 14:18:00,
2013-03-15 08:20:00,32.4,11.3,0.00,East,96,2.2,2.2,41,0.00,,---,0.00,VWS V14.00,2013-03-15 14:20:00,
2013-03-15 08:23:00,32.4,11.3,0.00,East,96,0.0,0.0,41,0.00,,---,0.00,VWS V14.00,2013-03-15 14:23:00,
2013-03-15 08:25:00,32.4,11.3,0.00,East,96,0.0,0.0,41,0.00,,---,0.00,VWS V14.00,2013-03-15 14:25:00,
2013-03-15 08:28:00,32.4,11.3,0.00,East,96,0.0,0.0,41,0.00,,---,0.00,VWS V14.00,2013-03-15 14:28:00,
2013-03-15 08:30:00,32.5,11.5,0.00,East,95,0.0,0.0,41,0.00,,---,0.00,VWS V14.00,2013-03-15 14:30:00,
2013-03-15 08:33:00,32.5,11.5,0.00,East,96,0.0,0.0,41,0.00,,---,0.00,VWS V14.00,2013-03-15 14:33:00,
2013-03-15 08:35:00,32.5,11.5,0.00,East,96,0.0,0.0,41,0.00,,---,0.00,VWS V14.00,2013-03-15 14:35:00,
2013-03-15 08:38:00,32.5,12.0,0.00,East,96,0.0,0.0,42,0.00,,---,0.00,VWS V14.00,2013-03-15 14:38:00,
2013-03-15 08:40:00,32.5,12.0,0.00,East,96,0.0,0.0,42,0.00,,---,0.00,VWS V14.00,2013-03-15 14:40:00,
2013-03-15 08:41:00,32.5,12.0,0.00,East,93,0.0,0.0,42,0.00,,---,0.00,VWS V14.00,2013-03-15 14:41:00,
2013-03-15 08:43:00,32.7,12.2,0.00,SE,136,0.0,0.0,42,0.00,,---,0.00,VWS V14.00,2013-03-15 14:43:00,
2013-03-15 08:45:00,32.7,12.2,0.00,SE,136,0.0,0.0,42,0.00,,---,0.00,VWS V14.00,2013-03-15 14:45:00,
2013-03-15 08:46:00,32.7,12.2,0.00,SE,136,0.0,0.0,42,0.00,,---,0.00,VWS V14.00,2013-03-15 14:46:00,
2013-03-15 08:49:00,32.9,12.3,0.00,SE,136,0.0,0.0,42,0.00,,---,0.00,VWS V14.00,2013-03-15 14:49:00,
2013-03-15 08:50:00,33.1,12.5,0.00,SE,136,0.0,0.0,42,0.00,,---,0.00,VWS V14.00,2013-03-15 14:50:00,
2013-03-15 08:51:00,33.1,12.5,0.00,West,270,0.0,0.0,42,0.00,,---,0.00,VWS V14.00,2013-03-15 14:51:00,
2013-03-15 08:54:00,33.3,12.7,0.00,West,260,0.0,0.0,42,0.00,,---,0.00,VWS V14.00,2013-03-15 14:54:00,
2013-03-15 08:55:00,33.4,12.8,0.00,WSW,256,0.0,0.0,42,0.00,,---,0.00,VWS V14.00,2013-03-15 14:55:00,
2013-03-15 08:56:00,33.4,12.8,0.00,WSW,256,0.0,0.0,42,0.00,,---,0.00,VWS V14.00,2013-03-15 14:56:00,
2013-03-15 08:57:00,33.4,12.8,0.00,WSW,256,0.0,0.0,42,0.00,,---,0.00,VWS V14.00,2013-03-15 14:57:00,
2013-03-15 08:59:00,33.6,13.0,0.00,WSW,258,0.0,0.0,42,0.00,,---,0.00,VWS V14.00,2013-03-15 14:59:00,
2013-03-15 09:00:00,33.8,13.1,0.00,West,261,0.0,0.0,42,0.00,,---,0.00,VWS V14.00,2013-03-15 15:00:00,
2013-03-15 09:01:00,34.0,12.8,0.00,WNW,298,3.1,3.1,41,0.00,,---,0.00,VWS V14.00,2013-03-15 15:01:00,
2013-03-15 09:02:00,34.0,12.8,0.00,WNW,300,3.6,3.6,41,0.00,,---,0.00,VWS V14.00,2013-03-15 15:02:00,
2013-03-15 09:04:00,34.3,13.6,0.00,WNW,297,0.0,3.1,42,0.00,,---,0.00,VWS V14.00,2013-03-15 15:04:00,
2013-03-15 09:05:00,34.5,13.3,0.00,East,101,3.1,3.1,41,0.00,,---,0.00,VWS V14.00,2013-03-15 15:05:00,
2013-03-15 09:06:00,34.7,14.0,0.00,ESE,104,0.0,0.0,42,0.00,,---,0.00,VWS V14.00,2013-03-15 15:06:00,
2013-03-15 09:07:00,34.7,14.0,0.00,ESE,104,0.0,0.0,42,0.00,,---,0.00,VWS V14.00,2013-03-15 15:07:00,
2013-03-15 09:09:00,34.9,14.1,0.00,South,191,0.0,0.0,42,0.00,,---,0.00,VWS V14.00,2013-03-15 15:09:00,
2013-03-15 09:11:00,35.1,14.3,0.00,SSW,195,0.0,0.0,42,0.00,,---,0.00,VWS V14.00,2013-03-15 15:11:00,
2013-03-15 09:12:00,35.2,14.5,0.00,ESE,120,0.0,0.0,42,0.00,,---,0.00,VWS V14.00,2013-03-15 15:12:00,
2013-03-15 09:14:00,35.4,14.6,0.00,ESE,119,0.0,0.0,42,0.00,,---,0.00,VWS V14.00,2013-03-15 15:14:00,
2013-03-15 09:16:00,35.6,14.2,0.00,ESE,121,0.0,0.0,41,0.00,,---,0.00,VWS V14.00,2013-03-15 15:16:00,
2013-03-15 09:17:00,35.8,14.4,0.00,ESE,121,0.0,0.0,41,0.00,,---,0.00,VWS V14.00,2013-03-15 15:17:00,
2013-03-15 09:18:00,35.8,14.4,0.00,ESE,121,0.0,0.0,41,0.00,,---,0.00,VWS V14.00,2013-03-15 15:18:00,
2013-03-15 09:20:00,36.1,14.7,0.00,ESE,121,0.0,0.0,41,0.00,,---,0.00,VWS V14.00,2013-03-15 15:20:00,
2013-03-15 09:21:00,36.3,14.9,0.00,ESE,117,0.0,0.0,41,0.00,,---,0.00,VWS V14.00,2013-03-15 15:21:00,
2013-03-15 09:23:00,36.7,15.2,0.00,ESE,121,0.0,0.0,41,0.00,,---,0.00,VWS V14.00,2013-03-15 15:23:00,
2013-03-15 09:25:00,36.9,15.4,0.00,ENE,68,0.0,3.1,41,0.00,,---,0.00,VWS V14.00,2013-03-15 15:25:00,
2013-03-15 09:26:00,37.0,15.5,0.00,NW,320,0.0,3.1,41,0.00,,---,0.00,VWS V14.00,2013-03-15 15:26:00,
2013-03-15 09:28:00,37.4,15.9,0.00,NNW,333,2.7,2.7,41,0.00,,---,0.00,VWS V14.00,2013-03-15 15:28:00,
2013-03-15 09:30:00,37.9,16.4,0.00,NNW,329,0.0,4.9,41,0.00,,---,0.00,VWS V14.00,2013-03-15 15:30:00,
2013-03-15 09:31:00,38.1,16.5,0.00,East,99,3.1,5.4,41,0.00,,---,0.00,VWS V14.00,2013-03-15 15:31:00,
2013-03-15 09:33:00,38.5,16.8,0.00,SE,135,3.6,4.0,41,0.00,,---,0.00,VWS V14.00,2013-03-15 15:33:00,
2013-03-15 09:35:00,38.7,16.4,0.00,SSE,148,0.0,2.7,40,0.00,,---,0.00,VWS V14.00,2013-03-15 15:35:00,
2013-03-15 09:36:00,38.7,16.4,0.00,SE,142,6.3,6.3,40,0.00,,---,0.00,VWS V14.00,2013-03-15 15:36:00,
2013-03-15 09:38:00,39.2,16.9,0.00,SE,133,4.0,5.8,40,0.00,,---,0.00,VWS V14.00,2013-03-15 15:38:00,
2013-03-15 09:40:00,39.4,17.1,0.00,ESE,113,3.1,3.1,40,0.00,,---,0.00,VWS V14.00,2013-03-15 15:40:00,
2013-03-15 09:42:00,39.7,17.4,0.00,WSW,241,2.2,4.9,40,0.00,,---,0.00,VWS V14.00,2013-03-15 15:42:00,
2013-03-15 09:43:00,39.7,17.4,0.00,East,90,5.4,6.3,40,0.00,,---,0.00,VWS V14.00,2013-03-15 15:43:00,
2013-03-15 09:45:00,39.9,17.0,0.00,WSW,246,0.0,5.4,39,0.00,,---,0.00,VWS V14.00,2013-03-15 15:45:00,
2013-03-15 09:47:00,40.3,17.3,0.00,SSW,213,3.6,3.6,39,0.00,,---,0.00,VWS V14.00,2013-03-15 15:47:00,
2013-03-15 09:48:00,40.3,17.3,0.00,SW,215,3.6,5.4,39,0.00,,---,0.00,VWS V14.00,2013-03-15 15:48:00,
2013-03-15 09:50:00,41.0,18.0,0.00,WSW,242,0.0,0.0,39,0.00,,---,0.00,VWS V14.00,2013-03-15 15:50:00,
2013-03-15 09:52:00,41.2,18.1,0.00,ESE,112,2.7,5.8,39,0.00,,---,0.00,VWS V14.00,2013-03-15 15:52:00,
2013-03-15 09:53:00,41.2,18.1,0.00,WSW,244,3.6,4.9,39,0.00,,---,0.00,VWS V14.00,2013-03-15 15:53:00,
2013-03-15 09:54:00,41.4,18.3,0.00,SSE,147,2.7,2.7,39,0.00,,---,0.00,VWS V14.00,2013-03-15 15:54:00,
2013-03-15 09:55:00,41.5,18.4,0.00,SE,130,0.0,9.2,39,0.00,,---,0.00,VWS V14.00,2013-03-15 15:55:00,
2013-03-15 09:57:00,41.9,18.8,0.00,ESE,117,4.0,6.3,39,0.00,,---,0.00,VWS V14.00,2013-03-15 15:57:00,
2013-03-15 09:58:00,41.9,18.8,0.00,SSE,163,0.0,4.0,39,0.00,,---,0.00,VWS V14.00,2013-03-15 15:58:00,
2013-03-15 09:59:00,42.1,18.9,0.00,ESE,107,8.1,8.1,39,0.00,,---,0.00,VWS V14.00,2013-03-15 15:59:00,
2013-03-15 10:00:00,42.3,18.5,0.00,SSW,193,2.7,8.1,38,0.00,,---,0.00,VWS V14.00,2013-03-15 16:00:00,
2013-03-15 10:02:00,42.6,18.8,0.00,ESE,102,5.8,5.8,38,0.00,,---,0.00,VWS V14.00,2013-03-15 16:02:00,
2013-03-15 10:03:00,42.8,19.0,0.00,ESE,116,3.1,4.0,38,0.00,,---,0.00,VWS V14.00,2013-03-15 16:03:00,
2013-03-15 10:04:00,42.8,19.0,0.00,WSW,249,8.7,9.2,38,0.00,,---,0.00,VWS V14.00,2013-03-15 16:04:00,
2013-03-15 10:05:00,43.0,19.1,0.00,SE,131,3.6,9.2,38,0.00,,---,0.00,VWS V14.00,2013-03-15 16:05:00,
2013-03-15 10:07:00,43.3,19.5,0.00,NE,39,5.8,5.8,38,0.00,,---,0.00,VWS V14.00,2013-03-15 16:07:00,
2013-03-15 10:08:00,43.3,19.5,0.00,ESE,102,5.8,6.7,38,0.00,,---,0.00,VWS V14.00,2013-03-15 16:08:00,
2013-03-15 10:09:00,43.5,19.6,0.00,East,101,5.8,11.0,38,0.00,,---,0.00,VWS V14.00,2013-03-15 16:09:00,
2013-03-15 10:10:00,43.5,19.6,0.00,SSE,147,3.6,6.3,38,0.00,,---,0.00,VWS V14.00,2013-03-15 16:10:00,
2013-03-15 10:12:00,43.9,19.9,0.00,WSW,251,2.2,2.2,38,0.00,,---,0.00,VWS V14.00,2013-03-15 16:12:00,
2013-03-15 10:13:00,44.1,20.1,0.00,WSW,250,0.0,0.0,38,0.00,,---,0.00,VWS V14.00,2013-03-15 16:13:00,
2013-03-15 10:14:00,44.1,20.1,0.00,East,101,3.1,3.6,38,0.00,,---,0.00,VWS V14.00,2013-03-15 16:14:00,
2013-03-15 10:15:00,44.2,20.3,0.00,WNW,293,3.1,3.1,38,0.00,,---,0.00,VWS V14.00,2013-03-15 16:15:00,
2013-03-15 10:17:00,44.4,20.4,0.00,East,93,4.0,4.0,38,0.00,,---,0.00,VWS V14.00,2013-03-15 16:17:00,
2013-03-15 10:18:00,44.6,20.0,0.00,ESE,117,5.8,5.8,37,0.00,,---,0.00,VWS V14.00,2013-03-15 16:18:00,
2013-03-15 10:20:00,44.6,20.0,0.00,SE,139,5.4,6.3,37,0.00,,---,0.00,VWS V14.00,2013-03-15 16:20:00,
2013-03-15 10:22:00,45.0,20.3,0.00,ENE,68,7.6,8.1,37,0.00,,---,0.00,VWS V14.00,2013-03-15 16:22:00,
2013-03-15 10:23:00,45.1,20.4,0.00,SE,131,5.4,8.1,37,0.00,,---,0.00,VWS V14.00,2013-03-15 16:23:00,
2013-03-15 10:25:00,45.1,20.4,0.00,East,87,7.6,7.6,37,0.00,,---,0.00,VWS V14.00,2013-03-15 16:25:00,
2013-03-15 10:28:00,45.5,20.8,0.00,ESE,120,12.8,12.8,37,0.00,,---,0.00,VWS V14.00,2013-03-15 16:28:00,
2013-03-15 10:30:00,45.9,21.1,0.00,SE,137,8.3,8.3,37,0.00,,---,0.00,VWS V14.00,2013-03-15 16:30:00,
2013-03-15 10:33:00,46.0,21.2,0.00,ESE,109,8.1,10.5,37,0.00,,---,0.00,VWS V14.00,2013-03-15 16:33:00,
2013-03-15 10:34:00,46.2,20.8,0.00,ESE,102,8.3,10.5,36,0.00,,---,0.00,VWS V14.00,2013-03-15 16:34:00,
2013-03-15 10:35:00,46.2,20.8,0.00,SE,131,10.5,12.3,36,0.00,,---,0.00,VWS V14.00,2013-03-15 16:35:00,
2013-03-15 10:38:00,46.6,20.4,0.00,ESE,117,5.4,12.3,35,0.00,,---,0.00,VWS V14.00,2013-03-15 16:38:00,
2013-03-15 10:39:00,46.6,20.4,0.00,East,94,7.6,8.1,35,0.00,,---,0.00,VWS V14.00,2013-03-15 16:39:00,
2013-03-15 10:40:00,46.8,20.6,0.00,SE,138,8.1,12.8,35,0.00,,---,0.00,VWS V14.00,2013-03-15 16:40:00,
2013-03-15 10:41:00,46.9,20.7,0.00,ESE,117,8.7,12.3,35,0.00,,---,0.00,VWS V14.00,2013-03-15 16:41:00,
2013-03-15 10:43:00,47.1,20.2,0.00,ESE,109,7.6,12.8,34,0.00,,---,0.00,VWS V14.00,2013-03-15 16:43:00,
2013-03-15 10:44:00,47.1,20.2,0.00,SSE,153,8.3,8.3,34,0.00,,---,0.00,VWS V14.00,2013-03-15 16:44:00,
2013-03-15 10:46:00,47.1,20.2,0.00,SW,214,6.3,6.3,34,0.00,,---,0.00,VWS V14.00,2013-03-15 16:46:00,
2013-03-15 10:48:00,47.5,20.5,0.00,ESE,102,6.3,8.7,34,0.00,,---,0.00,VWS V14.00,2013-03-15 16:48:00,
2013-03-15 10:49:00,47.5,20.5,0.00,ESE,110,5.8,8.7,34,0.00,,---,0.00,VWS V14.00,2013-03-15 16:49:00,
2013-03-15 10:51:00,47.7,20.0,0.00,SE,145,8.1,8.1,33,0.00,,---,0.00,VWS V14.00,2013-03-15 16:51:00,
2013-03-15 10:53:00,47.8,20.9,0.00,East,92,8.1,8.1,34,0.00,,---,0.00,VWS V14.00,2013-03-15 16:53:00,
2013-03-15 10:54:00,47.8,20.9,0.00,ESE,103,13.2,15.0,34,0.00,,---,0.00,VWS V14.00,2013-03-15 16:54:00,
2013-03-15 10:56:00,48.0,20.3,0.00,ENE,63,12.8,12.8,33,0.00,,---,0.00,VWS V14.00,2013-03-15 16:56:00,
2013-03-15 10:57:00,48.0,20.3,0.00,ESE,121,17.4,17.4,33,0.00,,---,0.00,VWS V14.00,2013-03-15 16:57:00,
2013-03-15 10:58:00,48.2,19.7,0.00,SE,128,10.5,10.5,32,0.00,,---,0.00,VWS V14.00,2013-03-15 16:58:00,
2013-03-15 10:59:00,48.2,19.7,0.00,ESE,117,8.3,10.5,32,0.00,,---,0.00,VWS V14.00,2013-03-15 16:59:00,
2013-03-15 11:01:00,48.4,19.9,0.00,ENE,57,10.1,10.1,32,0.00,,---,0.00,VWS V14.00,2013-03-15 17:01:00,
2013-03-15 11:02:00,48.4,19.9,0.00,ESE,120,11.0,11.0,32,0.00,,---,0.00,VWS V14.00,2013-03-15 17:02:00,
2013-03-15 11:03:00,48.6,20.1,0.00,ESE,103,13.2,13.2,32,0.00,,---,0.00,VWS V14.00,2013-03-15 17:03:00,
2013-03-15 11:04:00,48.6,20.1,0.00,ESE,108,11.0,13.2,32,0.00,,---,0.00,VWS V14.00,2013-03-15 17:04:00,
2013-03-15 11:06:00,48.7,20.2,0.00,ESE,110,10.5,10.5,32,0.00,,---,0.00,VWS V14.00,2013-03-15 17:06:00,
2013-03-15 11:07:00,48.7,20.2,0.00,ESE,102,13.2,13.2,32,0.00,,---,0.00,VWS V14.00,2013-03-15 17:07:00,
2013-03-15 11:08:00,48.9,20.4,0.00,East,91,8.1,11.0,32,0.00,,---,0.00,VWS V14.00,2013-03-15 17:08:00,
2013-03-15 11:09:00,48.9,20.4,0.00,ESE,121,10.5,11.0,32,0.00,,---,0.00,VWS V14.00,2013-03-15 17:09:00,
2013-03-15 11:12:00,49.1,19.8,0.00,SE,132,7.6,10.5,31,0.00,,---,0.00,VWS V14.00,2013-03-15 17:12:00,
2013-03-15 11:14:00,49.3,19.9,0.00,SE,124,12.3,15.9,31,0.00,,---,0.00,VWS V14.00,2013-03-15 17:14:00,
2013-03-15 11:17:00,49.5,20.1,0.00,SE,133,8.7,11.4,31,0.00,,---,0.00,VWS V14.00,2013-03-15 17:17:00,
2013-03-15 11:19:00,49.6,20.3,0.00,SE,142,8.3,14.5,31,0.00,,---,0.00,VWS V14.00,2013-03-15 17:19:00,
2013-03-15 11:22:00,50.0,19.8,0.00,ESE,121,11.0,13.2,30,0.00,,---,0.00,VWS V14.00,2013-03-15 17:22:00,
2013-03-15 11:24:00,50.2,20.0,0.00,East,91,12.3,12.3,30,0.00,,---,0.00,VWS V14.00,2013-03-15 17:24:00,
2013-03-15 11:27:00,50.2,20.0,0.00,ENE,69,8.1,18.3,30,0.00,,---,0.00,VWS V14.00,2013-03-15 17:27:00,
2013-03-15 11:29:00,50.4,20.1,0.00,ESE,105,12.8,13.2,30,0.00,,---,0.00,VWS V14.00,2013-03-15 17:29:00,
2013-03-15 11:32:00,50.5,20.3,0.00,NNE,27,12.3,12.3,30,0.00,,---,0.00,VWS V14.00,2013-03-15 17:32:00,
2013-03-15 11:33:00,50.5,20.3,0.00,SE,129,13.6,13.6,30,0.00,,---,0.00,VWS V14.00,2013-03-15 17:33:00,
2013-03-15 11:34:00,50.5,20.3,0.00,ESE,109,14.5,14.5,30,0.00,,---,0.00,VWS V14.00,2013-03-15 17:34:00,
2013-03-15 11:37:00,50.7,20.4,0.00,NE,43,12.8,12.8,30,0.00,,---,0.00,VWS V14.00,2013-03-15 17:37:00,
2013-03-15 11:38:00,50.7,19.6,0.00,SSW,200,12.3,12.8,29,0.00,,---,0.00,VWS V14.00,2013-03-15 17:38:00,
2013-03-15 11:39:00,50.7,19.6,0.00,ESE,120,10.5,12.3,29,0.00,,---,0.00,VWS V14.00,2013-03-15 17:39:00,
2013-03-15 11:42:00,50.9,19.8,0.00,North,357,15.4,15.4,29,0.00,,---,0.00,VWS V14.00,2013-03-15 17:42:00,
2013-03-15 11:43:00,50.9,19.8,0.00,ESE,116,12.8,12.8,29,0.00,,---,0.00,VWS V14.00,2013-03-15 17:43:00,
2013-03-15 11:44:00,51.1,20.0,0.00,ENE,64,10.1,10.1,29,0.00,,---,0.00,VWS V14.00,2013-03-15 17:44:00,
2013-03-15 11:47:00,51.1,20.0,0.00,SE,130,11.0,11.0,29,0.00,,---,0.00,VWS V14.00,2013-03-15 17:47:00,
2013-03-15 11:48:00,51.1,20.0,0.00,East,100,11.0,11.0,29,0.00,,---,0.00,VWS V14.00,2013-03-15 17:48:00,
2013-03-15 11:49:00,51.3,20.1,0.00,East,85,5.8,8.3,29,0.00,,---,0.00,VWS V14.00,2013-03-15 17:49:00,
2013-03-15 11:50:00,51.3,20.1,0.00,ESE,118,9.2,9.2,29,0.00,,---,0.00,VWS V14.00,2013-03-15 17:50:00,
2013-03-15 11:53:00,51.3,19.3,0.00,ESE,116,12.8,19.7,28,0.00,,---,0.00,VWS V14.00,2013-03-15 17:53:00,
2013-03-15 11:55:00,51.3,19.3,0.00,ESE,108,12.3,12.8,28,0.00,,---,0.00,VWS V14.00,2013-03-15 17:55:00,
2013-03-15 11:58:00,51.3,19.3,0.00,East,93,9.6,15.4,28,0.00,,---,0.00,VWS V14.00,2013-03-15 17:58:00,
2013-03-15 11:59:00,51.3,19.3,0.00,East,98,10.1,12.8,28,0.00,,---,0.00,VWS V14.00,2013-03-15 17:59:00,
2013-03-15 12:00:00,51.3,19.3,0.00,SE,129,8.7,8.7,28,0.00,,---,0.00,VWS V14.00,2013-03-15 18:00:00,
2013-03-15 12:03:00,51.3,19.3,0.00,ESE,107,15.0,15.0,28,0.00,,---,0.00,VWS V14.00,2013-03-15 18:03:00,
2013-03-15 12:04:00,51.3,19.3,0.00,SSE,147,8.7,13.2,28,0.00,,---,0.00,VWS V14.00,2013-03-15 18:04:00,
2013-03-15 12:05:00,51.3,19.3,0.00,SE,131,8.3,13.2,28,0.00,,---,0.00,VWS V14.00,2013-03-15 18:05:00,
2013-03-15 12:08:00,51.3,19.3,0.00,ENE,69,13.2,15.9,28,0.00,,---,0.00,VWS V14.00,2013-03-15 18:08:00,
2013-03-15 12:09:00,51.3,19.3,0.00,SE,134,8.7,12.8,28,0.00,,---,0.00,VWS V14.00,2013-03-15 18:09:00,
2013-03-15 12:10:00,51.3,19.3,0.00,East,101,13.2,13.2,28,0.00,,---,0.00,VWS V14.00,2013-03-15 18:10:00,
2013-03-15 12:13:00,51.4,19.4,0.00,SSE,160,11.0,17.0,28,0.00,,---,0.00,VWS V14.00,2013-03-15 18:13:00,
2013-03-15 12:14:00,51.4,19.4,0.00,East,99,8.7,21.0,28,0.00,,---,0.00,VWS V14.00,2013-03-15 18:14:00,
2013-03-15 12:15:00,51.4,19.4,0.00,ENE,77,7.6,12.8,28,0.00,,---,0.00,VWS V14.00,2013-03-15 18:15:00,
2013-03-15 12:18:00,51.4,19.4,0.00,SE,131,7.6,15.0,28,0.00,,---,0.00,VWS V14.00,2013-03-15 18:18:00,
2013-03-15 12:19:00,51.6,19.6,0.00,ESE,113,8.3,8.7,28,0.00,,---,0.00,VWS V14.00,2013-03-15 18:19:00,
2013-03-15 12:20:00,51.6,19.6,0.00,SSE,162,11.4,14.5,28,0.00,,---,0.00,VWS V14.00,2013-03-15 18:20:00,
2013-03-15 12:23:00,51.8,18.9,0.00,East,94,8.1,19.7,27,0.00,,---,0.00,VWS V14.00,2013-03-15 18:23:00,
2013-03-15 12:24:00,51.8,18.9,0.00,ESE,113,10.5,13.6,27,0.00,,---,0.00,VWS V14.00,2013-03-15 18:24:00,
2013-03-15 12:25:00,51.8,18.9,0.00,East,83,8.1,8.1,27,0.00,,---,0.00,VWS V14.00,2013-03-15 18:25:00,
2013-03-15 12:28:00,51.8,18.9,0.00,East,87,11.4,17.0,27,0.00,,---,0.00,VWS V14.00,2013-03-15 18:28:00,
2013-03-15 12:29:00,51.8,18.9,0.00,ESE,123,21.9,21.9,27,0.00,,---,0.00,VWS V14.00,2013-03-15 18:29:00,
2013-03-15 12:30:00,51.8,18.9,0.00,SE,126,19.7,23.3,27,0.00,,---,0.00,VWS V14.00,2013-03-15 18:30:00,
2013-03-15 12:31:00,51.8,18.9,0.00,East,96,12.8,21.0,27,0.00,,---,0.00,VWS V14.00,2013-03-15 18:31:00,
2013-03-15 12:33:00,51.6,18.8,0.00,SSE,147,24.6,24.6,27,0.00,,---,0.00,VWS V14.00,2013-03-15 18:33:00,
2013-03-15 12:34:00,51.6,18.8,0.00,East,93,18.8,19.7,27,0.00,,---,0.00,VWS V14.00,2013-03-15 18:34:00,
2013-03-15 12:35:00,51.6,18.8,0.00,ESE,112,12.8,19.7,27,0.00,,---,0.00,VWS V14.00,2013-03-15 18:35:00,
2013-03-15 12:36:00,51.6,18.8,0.00,SE,145,10.5,12.8,27,0.00,,---,0.00,VWS V14.00,2013-03-15 18:36:00,
2013-03-15 12:39:00,51.6,18.8,0.00,SE,141,8.7,15.9,27,0.00,,---,0.00,VWS V14.00,2013-03-15 18:39:00,
2013-03-15 12:40:00,51.6,18.8,0.00,ENE,68,15.4,15.4,27,0.00,,---,0.00,VWS V14.00,2013-03-15 18:40:00,
2013-03-15 12:41:00,51.8,18.9,0.00,East,89,16.8,16.8,27,0.00,,---,0.00,VWS V14.00,2013-03-15 18:41:00,
2013-03-15 12:44:00,51.8,18.9,0.00,SE,135,10.5,10.5,27,0.00,,---,0.00,VWS V14.00,2013-03-15 18:44:00,
2013-03-15 12:45:00,51.8,18.9,0.00,ESE,113,8.3,12.8,27,0.00,,---,0.00,VWS V14.00,2013-03-15 18:45:00,
2013-03-15 12:47:00,51.8,18.9,0.00,East,96,16.3,16.3,27,0.00,,---,0.00,VWS V14.00,2013-03-15 18:47:00,
2013-03-15 12:49:00,51.8,18.9,0.00,SE,124,8.1,12.8,27,0.00,,---,0.00,VWS V14.00,2013-03-15 18:49:00,
2013-03-15 12:50:00,51.8,18.9,0.00,SSE,160,8.1,18.3,27,0.00,,---,0.00,VWS V14.00,2013-03-15 18:50:00,
2013-03-15 12:52:00,51.8,18.9,0.00,ESE,119,10.1,19.7,27,0.00,,---,0.00,VWS V14.00,2013-03-15 18:52:00,
2013-03-15 12:54:00,51.8,18.9,0.00,ESE,107,12.8,12.8,27,0.00,,---,0.00,VWS V14.00,2013-03-15 18:54:00,
2013-03-15 12:55:00,51.8,18.9,0.00,ESE,111,8.1,13.2,27,0.00,,---,0.00,VWS V14.00,2013-03-15 18:55:00,
2013-03-15 12:57:00,51.8,18.9,0.00,East,100,8.1,15.0,27,0.00,,---,0.00,VWS V14.00,2013-03-15 18:57:00,
2013-03-15 12:59:00,52.0,19.1,0.00,NE,51,10.5,13.2,27,0.00,,---,0.00,VWS V14.00,2013-03-15 18:59:00,
2013-03-15 13:00:00,52.2,19.2,0.00,ESE,119,8.1,10.1,27,0.00,,---,0.00,VWS V14.00,2013-03-15 19:00:00,
2013-03-15 13:02:00,52.2,19.2,0.00,SE,146,12.3,12.3,27,0.00,,---,0.00,VWS V14.00,2013-03-15 19:02:00,
2013-03-15 13:04:00,52.3,19.4,0.00,ENE,72,17.4,17.4,27,0.00,,---,0.00,VWS V14.00,2013-03-15 19:04:00,
2013-03-15 13:05:00,52.3,19.4,0.00,ESE,105,13.6,17.4,27,0.00,,---,0.00,VWS V14.00,2013-03-15 19:05:00,
2013-03-15 13:07:00,52.5,19.5,0.00,ESE,120,10.5,17.4,27,0.00,,---,0.00,VWS V14.00,2013-03-15 19:07:00,
2013-03-15 13:09:00,52.5,19.5,0.00,ESE,114,8.7,17.4,27,0.00,,---,0.00,VWS V14.00,2013-03-15 19:09:00,
2013-03-15 13:10:00,52.5,19.5,0.00,ESE,114,5.8,13.2,27,0.00,,---,0.00,VWS V14.00,2013-03-15 19:10:00,
2013-03-15 13:12:00,52.7,19.7,0.00,ESE,114,12.8,12.8,27,0.00,,---,0.00,VWS V14.00,2013-03-15 19:12:00,
2013-03-15 13:14:00,52.7,19.7,0.00,SE,124,9.2,9.2,27,0.00,,---,0.00,VWS V14.00,2013-03-15 19:14:00,
2013-03-15 13:15:00,52.7,19.7,0.00,ESE,116,13.2,13.2,27,0.00,,---,0.00,VWS V14.00,2013-03-15 19:15:00,
2013-03-15 13:17:00,52.7,19.7,0.00,SE,130,10.5,10.5,27,0.00,,---,0.00,VWS V14.00,2013-03-15 19:17:00,
2013-03-15 13:19:00,52.9,19.8,0.00,SE,146,8.7,8.7,27,0.00,,---,0.00,VWS V14.00,2013-03-15 19:19:00,
2013-03-15 13:20:00,52.9,19.8,0.00,SSE,168,12.8,12.8,27,0.00,,---,0.00,VWS V14.00,2013-03-15 19:20:00,
2013-03-15 13:22:00,52.9,19.8,0.00,ENE,77,6.3,7.6,27,0.00,,---,0.00,VWS V14.00,2013-03-15 19:22:00,
2013-03-15 13:24:00,52.9,19.8,0.00,ESE,114,12.3,12.3,27,0.00,,---,0.00,VWS V14.00,2013-03-15 19:24:00,
2013-03-15 13:25:00,52.9,19.8,0.00,ESE,114,11.0,11.0,27,0.00,,---,0.00,VWS V14.00,2013-03-15 19:25:00,
2013-03-15 13:27:00,52.9,19.8,0.00,ESE,113,7.6,8.7,27,0.00,,---,0.00,VWS V14.00,2013-03-15 19:27:00,
2013-03-15 13:29:00,52.9,19.8,0.00,East,97,3.6,8.1,27,0.00,,---,0.00,VWS V14.00,2013-03-15 19:29:00,
2013-03-15 13:30:00,52.9,19.8,0.00,ESE,112,6.3,6.3,27,0.00,,---,0.00,VWS V14.00,2013-03-15 19:30:00,
2013-03-15 13:32:00,52.9,19.8,0.00,NE,56,8.1,8.3,27,0.00,,---,0.00,VWS V14.00,2013-03-15 19:32:00,
2013-03-15 13:35:00,52.9,19.8,0.00,ENE,78,3.1,5.4,27,0.00,,---,0.00,VWS V14.00,2013-03-15 19:35:00,
2013-03-15 13:37:00,52.7,19.7,0.00,SSE,158,8.1,15.9,27,0.00,,---,0.00,VWS V14.00,2013-03-15 19:37:00,
2013-03-15 13:38:00,52.7,19.7,0.00,SSE,147,8.1,8.1,27,0.00,,---,0.00,VWS V14.00,2013-03-15 19:38:00,
2013-03-15 13:40:00,52.7,19.7,0.00,SE,129,8.3,8.7,27,0.00,,---,0.00,VWS V14.00,2013-03-15 19:40:00,
2013-03-15 13:43:00,52.7,19.7,0.00,ENE,69,11.0,15.0,27,0.00,,---,0.00,VWS V14.00,2013-03-15 19:43:00,
2013-03-15 13:45:00,52.7,19.7,0.00,East,87,11.0,11.0,27,0.00,,---,0.00,VWS V14.00,2013-03-15 19:45:00,
2013-03-15 13:46:00,52.7,19.7,0.00,ESE,122,8.7,15.4,27,0.00,,---,0.00,VWS V14.00,2013-03-15 19:46:00,
2013-03-15 13:48:00,52.9,19.8,0.00,ESE,112,3.1,9.6,27,0.00,,---,0.00,VWS V14.00,2013-03-15 19:48:00,
2013-03-15 13:50:00,52.9,19.8,0.00,South,172,3.6,7.6,27,0.00,,---,0.00,VWS V14.00,2013-03-15 19:50:00,
2013-03-15 13:51:00,52.9,19.8,0.00,ESE,105,6.3,8.1,27,0.00,,---,0.00,VWS V14.00,2013-03-15 19:51:00,
2013-03-15 13:53:00,53.1,20.0,0.00,SE,144,10.5,10.5,27,0.00,,---,0.00,VWS V14.00,2013-03-15 19:53:00,
2013-03-15 13:55:00,53.1,20.0,0.00,SSE,149,7.6,7.6,27,0.00,,---,0.00,VWS V14.00,2013-03-15 19:55:00,
2013-03-15 13:56:00,53.1,20.0,0.00,ESE,114,15.0,15.0,27,0.00,,---,0.00,VWS V14.00,2013-03-15 19:56:00,
2013-03-15 13:58:00,53.1,20.0,0.00,SSW,193,8.7,8.7,27,0.00,,---,0.00,VWS V14.00,2013-03-15 19:58:00,
2013-03-15 14:00:00,53.2,20.1,0.00,ESE,109,10.1,10.1,27,0.00,,---,0.00,VWS V14.00,2013-03-15 20:00:00,
2013-03-15 14:02:00,53.2,20.1,0.00,SE,128,8.3,8.7,27,0.00,,---,0.00,VWS V14.00,2013-03-15 20:02:00,
2013-03-15 14:03:00,53.2,20.1,0.00,ESE,113,6.3,11.0,27,0.00,,---,0.00,VWS V14.00,2013-03-15 20:03:00,
2013-03-15 14:05:00,53.4,20.3,0.00,SSW,198,3.1,6.3,27,0.00,,---,0.00,VWS V14.00,2013-03-15 20:05:00,
2013-03-15 14:07:00,53.4,20.3,0.00,SE,127,3.6,8.1,27,0.00,,---,0.00,VWS V14.00,2013-03-15 20:07:00,
2013-03-15 14:08:00,53.4,20.3,0.00,SW,231,10.5,11.9,27,0.00,,---,0.00,VWS V14.00,2013-03-15 20:08:00,
2013-03-15 14:10:00,53.4,20.3,0.00,ESE,114,7.6,11.0,27,0.00,,---,0.00,VWS V14.00,2013-03-15 20:10:00,
2013-03-15 14:12:00,53.6,19.6,0.00,East,84,11.0,12.8,26,0.00,,---,0.00,VWS V14.00,2013-03-15 20:12:00,
2013-03-15 14:13:00,53.6,19.6,0.00,East,95,10.5,11.0,26,0.00,,---,0.00,VWS V14.00,2013-03-15 20:13:00,
2013-03-15 14:15:00,53.6,19.6,0.00,SE,139,12.3,17.0,26,0.00,,---,0.00,VWS V14.00,2013-03-15 20:15:00,
2013-03-15 14:17:00,53.8,19.7,0.00,East,90,5.4,10.5,26,0.00,,---,0.00,VWS V14.00,2013-03-15 20:17:00,
2013-03-15 14:18:00,53.8,19.7,0.00,ESE,103,6.3,6.3,26,0.00,,---,0.00,VWS V14.00,2013-03-15 20:18:00,
2013-03-15 14:20:00,53.8,19.7,0.00,ESE,104,7.2,8.1,26,0.00,,---,0.00,VWS V14.00,2013-03-15 20:20:00,
2013-03-15 14:22:00,54.0,19.9,0.00,SE,138,5.4,5.4,26,0.00,,---,0.00,VWS V14.00,2013-03-15 20:22:00,
2013-03-15 14:23:00,54.0,19.9,0.00,ESE,123,6.3,6.3,26,0.00,,---,0.00,VWS V14.00,2013-03-15 20:23:00,
2013-03-15 14:24:00,54.0,19.9,0.00,SE,126,3.1,6.3,26,0.00,,---,0.00,VWS V14.00,2013-03-15 20:24:00,
2013-03-15 14:25:00,54.1,20.0,0.00,SE,124,2.7,7.6,26,0.00,,---,0.00,VWS V14.00,2013-03-15 20:25:00,
2013-03-15 14:27:00,54.1,20.0,0.00,SSW,194,3.6,4.9,26,0.00,,---,0.00,VWS V14.00,2013-03-15 20:27:00,
2013-03-15 14:28:00,54.1,20.0,0.00,South,171,2.2,4.9,26,0.00,,---,0.00,VWS V14.00,2013-03-15 20:28:00,
2013-03-15 14:29:00,54.3,20.2,0.00,SE,142,10.1,10.1,26,0.00,,---,0.00,VWS V14.00,2013-03-15 20:29:00,
2013-03-15 14:30:00,54.3,20.2,0.00,South,180,3.1,7.2,26,0.00,,---,0.00,VWS V14.00,2013-03-15 20:30:00,
2013-03-15 14:32:00,54.3,20.2,0.00,East,94,10.1,16.8,26,0.00,,---,0.00,VWS V14.00,2013-03-15 20:32:00,
2013-03-15 14:33:00,54.3,20.2,0.00,SE,128,8.3,16.8,26,0.00,,---,0.00,VWS V14.00,2013-03-15 20:33:00,
2013-03-15 14:34:00,54.3,20.2,0.00,SSE,149,5.8,11.9,26,0.00,,---,0.00,VWS V14.00,2013-03-15 20:34:00,
2013-03-15 14:35:00,54.3,20.2,0.00,ESE,109,7.6,8.7,26,0.00,,---,0.00,VWS V14.00,2013-03-15 20:35:00,
2013-03-15 14:38:00,54.3,20.2,0.00,South,184,0.0,4.0,26,0.00,,---,0.00,VWS V14.00,2013-03-15 20:38:00,
2013-03-15 14:39:00,54.3,20.2,0.00,ESE,116,5.4,5.4,26,0.00,,---,0.00,VWS V14.00,2013-03-15 20:39:00,
2013-03-15 14:40:00,54.3,20.2,0.00,SE,135,7.6,7.6,26,0.00,,---,0.00,VWS V14.00,2013-03-15 20:40:00,
2013-03-15 14:43:00,54.3,20.2,0.00,SE,128,4.9,4.9,26,0.00,,---,0.00,VWS V14.00,2013-03-15 20:43:00,
2013-03-15 14:44:00,54.3,20.2,0.00,SW,236,2.2,4.0,26,0.00,,---,0.00,VWS V14.00,2013-03-15 20:44:00,
2013-03-15 14:45:00,54.3,20.2,0.00,ESE,111,5.8,5.8,26,0.00,,---,0.00,VWS V14.00,2013-03-15 20:45:00,
2013-03-15 14:48:00,54.3,20.2,0.00,SSW,210,3.6,5.4,26,0.00,,---,0.00,VWS V14.00,2013-03-15 20:48:00,
2013-03-15 14:49:00,54.3,20.2,0.00,SSE,149,3.1,3.1,26,0.00,,---,0.00,VWS V14.00,2013-03-15 20:49:00,
2013-03-15 14:50:00,54.3,20.2,0.00,SE,135,10.1,10.1,26,0.00,,---,0.00,VWS V14.00,2013-03-15 20:50:00,
2013-03-15 14:53:00,54.1,20.0,0.00,ESE,119,8.3,12.8,26,0.00,,---,0.00,VWS V14.00,2013-03-15 20:53:00,
2013-03-15 14:54:00,54.1,20.0,0.00,SSE,154,12.3,12.3,26,0.00,,---,0.00,VWS V14.00,2013-03-15 20:54:00,
2013-03-15 14:55:00,54.1,20.0,0.00,East,95,8.7,8.7,26,0.00,,---,0.00,VWS V14.00,2013-03-15 20:55:00,
2013-03-15 14:58:00,54.0,19.9,0.00,SW,220,8.3,8.3,26,0.00,,---,0.00,VWS V14.00,2013-03-15 20:58:00,
2013-03-15 14:59:00,54.0,19.9,0.00,SE,134,5.4,8.3,26,0.00,,---,0.00,VWS V14.00,2013-03-15 20:59:00,
2013-03-15 15:00:00,54.0,19.9,0.00,ESE,118,9.2,9.2,26,0.00,,---,0.00,VWS V14.00,2013-03-15 21:00:00,
2013-03-15 15:03:00,53.8,19.7,0.00,ESE,111,11.4,11.4,26,0.00,,---,0.00,VWS V14.00,2013-03-15 21:03:00,
2013-03-15 15:04:00,53.8,19.7,0.00,North,2,11.0,11.4,26,0.00,,---,0.00,VWS V14.00,2013-03-15 21:04:00,
2013-03-15 15:05:00,53.8,19.7,0.00,ENE,60,12.8,15.0,26,0.00,,---,0.00,VWS V14.00,2013-03-15 21:05:00,
2013-03-15 15:08:00,53.6,19.6,0.00,NE,47,5.8,7.6,26,0.00,,---,0.00,VWS V14.00,2013-03-15 21:08:00,
2013-03-15 15:09:00,53.6,19.6,0.00,ESE,109,11.0,11.0,26,0.00,,---,0.00,VWS V14.00,2013-03-15 21:09:00,
2013-03-15 15:10:00,53.6,19.6,0.00,ESE,106,8.1,8.1,26,0.00,,---,0.00,VWS V14.00,2013-03-15 21:10:00,
2013-03-15 15:13:00,53.6,19.6,0.00,East,95,8.3,10.5,26,0.00,,---,0.00,VWS V14.00,2013-03-15 21:13:00,
2013-03-15 15:14:00,53.6,19.6,0.00,ESE,106,7.6,8.1,26,0.00,,---,0.00,VWS V14.00,2013-03-15 21:14:00,
2013-03-15 15:15:00,53.6,19.6,0.00,SE,129,4.9,4.9,26,0.00,,---,0.00,VWS V14.00,2013-03-15 21:15:00,
2013-03-15 15:18:00,53.8,19.7,0.00,ENE,64,6.7,6.7,26,0.00,,---,0.00,VWS V14.00,2013-03-15 21:18:00,
2013-03-15 15:20:00,53.8,19.7,0.00,East,92,14.1,14.1,26,0.00,,---,0.00,VWS V14.00,2013-03-15 21:20:00,
2013-03-15 15:21:00,53.8,19.7,0.00,SE,140,8.3,8.3,26,0.00,,---,0.00,VWS V14.00,2013-03-15 21:21:00,
2013-03-15 15:23:00,54.0,19.9,0.00,East,97,6.7,8.7,26,0.00,,---,0.00,VWS V14.00,2013-03-15 21:23:00,
2013-03-15 15:25:00,54.0,19.9,0.00,ESE,106,6.3,8.3,26,0.00,,---,0.00,VWS V14.00,2013-03-15 21:25:00,
2013-03-15 15:27:00,54.1,20.0,0.00,NE,37,5.4,5.4,26,0.00,,---,0.00,VWS V14.00,2013-03-15 21:27:00,
2013-03-15 15:28:00,54.1,20.0,0.00,SSE,158,5.4,6.3,26,0.00,,---,0.00,VWS V14.00,2013-03-15 21:28:00,
2013-03-15 15:30:00,54.1,20.0,0.00,ESE,108,10.5,13.2,26,0.00,,---,0.00,VWS V14.00,2013-03-15 21:30:00,
2013-03-15 15:32:00,54.3,20.2,0.00,ENE,63,8.3,8.3,26,0.00,,---,0.00,VWS V14.00,2013-03-15 21:32:00,
2013-03-15 15:33:00,54.3,20.2,0.00,South,187,4.0,9.6,26,0.00,,---,0.00,VWS V14.00,2013-03-15 21:33:00,
2013-03-15 15:35:00,54.3,20.2,0.00,SE,146,4.5,8.3,26,0.00,,---,0.00,VWS V14.00,2013-03-15 21:35:00,
2013-03-15 15:36:00,54.3,20.2,0.00,SSE,147,6.3,6.3,26,0.00,,---,0.00,VWS V14.00,2013-03-15 21:36:00,
2013-03-15 15:37:00,54.5,20.3,0.00,SE,136,4.9,5.8,26,0.00,,---,0.00,VWS V14.00,2013-03-15 21:37:00,
2013-03-15 15:39:00,54.5,20.3,0.00,SSE,148,5.8,7.6,26,0.00,,---,0.00,VWS V14.00,2013-03-15 21:39:00,
2013-03-15 15:40:00,54.5,20.3,0.00,SSW,197,3.6,5.8,26,0.00,,---,0.00,VWS V14.00,2013-03-15 21:40:00,
2013-03-15 15:41:00,54.5,20.3,0.00,SSE,168,2.2,3.6,26,0.00,,---,0.00,VWS V14.00,2013-03-15 21:41:00,
2013-03-15 15:42:00,54.5,20.3,0.00,ESE,114,5.4,6.3,26,0.00,,---,0.00,VWS V14.00,2013-03-15 21:42:00,
2013-03-15 15:45:00,54.5,20.3,0.00,SE,138,3.6,3.6,26,0.00,,---,0.00,VWS V14.00,2013-03-15 21:45:00,
2013-03-15 15:46:00,54.5,20.3,0.00,SE,136,8.1,8.1,26,0.00,,---,0.00,VWS V14.00,2013-03-15 21:46:00,
2013-03-15 15:47:00,54.5,20.3,0.00,East,92,6.3,7.6,26,0.00,,---,0.00,VWS V14.00,2013-03-15 21:47:00,
2013-03-15 15:49:00,54.5,20.3,0.00,East,97,5.4,10.5,26,0.00,,---,0.00,VWS V14.00,2013-03-15 21:49:00,
2013-03-15 15:51:00,54.5,20.3,0.00,SSW,197,2.7,2.7,26,0.00,,---,0.00,VWS V14.00,2013-03-15 21:51:00,
2013-03-15 15:52:00,54.5,20.3,0.00,SE,139,5.8,5.8,26,0.00,,---,0.00,VWS V14.00,2013-03-15 21:52:00,
2013-03-15 15:55:00,54.5,20.3,0.00,SSE,163,3.6,4.0,26,0.00,,---,0.00,VWS V14.00,2013-03-15 21:55:00,
2013-03-15 15:56:00,54.5,20.3,0.00,ESE,114,4.9,4.9,26,0.00,,---,0.00,VWS V14.00,2013-03-15 21:56:00,
2013-03-15 15:57:00,54.5,20.3,0.00,SE,130,2.7,3.6,26,0.00,,---,0.00,VWS V14.00,2013-03-15 21:57:00,
2013-03-15 16:00:00,54.5,20.3,0.00,SSW,203,3.1,5.4,26,0.00,,---,0.00,VWS V14.00,2013-03-15 22:00:00,
2013-03-15 16:01:00,54.5,20.3,0.00,ESE,120,5.4,5.4,26,0.00,,---,0.00,VWS V14.00,2013-03-15 22:01:00,
2013-03-15 16:03:00,54.5,20.3,0.00,ESE,112,4.0,4.0,26,0.00,,---,0.00,VWS V14.00,2013-03-15 22:03:00,
2013-03-15 16:05:00,54.5,20.3,0.00,SE,131,4.0,5.8,26,0.00,,---,0.00,VWS V14.00,2013-03-15 22:05:00,
2013-03-15 16:06:00,54.7,20.5,0.00,NNE,16,5.4,5.4,26,0.00,,---,0.00,VWS V14.00,2013-03-15 22:06:00,
2013-03-15 16:08:00,54.7,20.5,0.00,SE,134,3.1,7.6,26,0.00,,---,0.00,VWS V14.00,2013-03-15 22:08:00,
2013-03-15 16:10:00,54.9,20.6,0.00,ESE,123,3.6,3.6,26,0.00,,---,0.00,VWS V14.00,2013-03-15 22:10:00,
2013-03-15 16:11:00,54.9,20.6,0.00,SE,124,3.6,3.6,26,0.00,,---,0.00,VWS V14.00,2013-03-15 22:11:00,
2013-03-15 16:13:00,55.0,20.8,0.00,ENE,68,6.3,8.3,26,0.00,,---,0.00,VWS V14.00,2013-03-15 22:13:00,
2013-03-15 16:15:00,55.0,20.8,0.00,East,100,3.1,3.1,26,0.00,,---,0.00,VWS V14.00,2013-03-15 22:15:00,
2013-03-15 16:16:00,55.2,21.0,0.00,SE,142,3.1,5.4,26,0.00,,---,0.00,VWS V14.00,2013-03-15 22:16:00,
2013-03-15 16:17:00,55.2,21.0,0.00,SE,142,3.1,5.4,26,0.00,,---,0.00,VWS V14.00,2013-03-15 22:17:00,
2013-03-15 16:18:00,55.2,21.0,0.00,SE,125,4.0,5.4,26,0.00,,---,0.00,VWS V14.00,2013-03-15 22:18:00,
2013-03-15 16:20:00,55.4,20.2,0.00,East,100,5.8,5.8,25,0.00,,---,0.00,VWS V14.00,2013-03-15 22:20:00,
2013-03-15 16:21:00,55.4,20.2,0.00,ESE,121,4.0,4.9,25,0.00,,---,0.00,VWS V14.00,2013-03-15 22:21:00,
2013-03-15 16:22:00,55.4,20.2,0.00,South,172,6.3,6.3,25,0.00,,---,0.00,VWS V14.00,2013-03-15 22:22:00,
2013-03-15 16:23:00,55.6,20.3,0.00,SW,220,2.2,2.2,25,0.00,,---,0.00,VWS V14.00,2013-03-15 22:23:00,
2013-03-15 16:25:00,55.6,20.3,0.00,ESE,112,2.7,5.4,25,0.00,,---,0.00,VWS V14.00,2013-03-15 22:25:00,
2013-03-15 16:27:00,55.6,20.3,0.00,SW,220,2.7,2.7,25,0.00,,---,0.00,VWS V14.00,2013-03-15 22:27:00,
2013-03-15 16:28:00,55.6,20.3,0.00,SW,224,0.0,2.7,25,0.00,,---,0.00,VWS V14.00,2013-03-15 22:28:00,
2013-03-15 16:30:00,55.4,20.2,0.00,SE,128,5.4,5.4,25,0.00,,---,0.00,VWS V14.00,2013-03-15 22:30:00,
2013-03-15 16:32:00,55.4,20.2,0.00,SSW,206,0.0,2.2,25,0.00,,---,0.00,VWS V14.00,2013-03-15 22:32:00,
2013-03-15 16:33:00,55.4,20.2,0.00,SW,222,2.7,2.7,25,0.00,,---,0.00,VWS V14.00,2013-03-15 22:33:00,
2013-03-15 16:36:00,55.4,20.2,0.00,SSW,199,0.0,0.0,25,0.00,,---,0.00,VWS V14.00,2013-03-15 22:36:00,
2013-03-15 16:37:00,55.4,20.2,0.00,ESE,106,4.0,4.0,25,0.00,,---,0.00,VWS V14.00,2013-03-15 22:37:00,
2013-03-15 16:38:00,55.4,20.2,0.00,SE,137,4.5,7.6,25,0.00,,---,0.00,VWS V14.00,2013-03-15 22:38:00,
2013-03-15 16:41:00,55.4,20.2,0.00,SE,127,8.7,8.7,25,0.00,,---,0.00,VWS V14.00,2013-03-15 22:41:00,
2013-03-15 16:42:00,55.6,20.3,0.00,ENE,73,4.0,10.1,25,0.00,,---,0.00,VWS V14.00,2013-03-15 22:42:00,
2013-03-15 16:43:00,55.6,20.3,0.00,ENE,71,3.1,6.3,25,0.00,,---,0.00,VWS V14.00,2013-03-15 22:43:00,
2013-03-15 16:46:00,55.6,20.3,0.00,East,97,6.3,6.3,25,0.00,,---,0.00,VWS V14.00,2013-03-15 22:46:00,
2013-03-15 16:47:00,55.6,20.3,0.00,SE,139,5.4,5.8,25,0.00,,---,0.00,VWS V14.00,2013-03-15 22:47:00,
2013-03-15 16:48:00,55.8,20.5,0.00,ESE,117,5.8,10.1,25,0.00,,---,0.00,VWS V14.00,2013-03-15 22:48:00,
2013-03-15 16:51:00,55.8,20.5,0.00,ESE,103,2.7,2.7,25,0.00,,---,0.00,VWS V14.00,2013-03-15 22:51:00,
2013-03-15 16:52:00,55.8,20.5,0.00,South,189,0.0,9.2,25,0.00,,---,0.00,VWS V14.00,2013-03-15 22:52:00,
2013-03-15 16:53:00,55.8,20.5,0.00,SE,136,4.9,5.4,25,0.00,,---,0.00,VWS V14.00,2013-03-15 22:53:00,
2013-03-15 16:56:00,55.8,20.5,0.00,ESE,113,7.6,7.6,25,0.00,,---,0.00,VWS V14.00,2013-03-15 22:56:00,
2013-03-15 16:57:00,55.8,20.5,0.00,SE,136,8.1,10.5,25,0.00,,---,0.00,VWS V14.00,2013-03-15 22:57:00,
2013-03-15 16:58:00,55.8,20.5,0.00,East,79,4.9,9.2,25,0.00,,---,0.00,VWS V14.00,2013-03-15 22:58:00,
2013-03-15 17:01:00,55.8,20.5,0.00,ESE,106,5.8,8.7,25,0.00,,---,0.00,VWS V14.00,2013-03-15 23:01:00,
2013-03-15 17:02:00,55.8,20.5,0.00,SE,136,4.0,4.0,25,0.00,,---,0.00,VWS V14.00,2013-03-15 23:02:00,
2013-03-15 17:03:00,55.8,20.5,0.00,ESE,106,6.3,8.7,25,0.00,,---,0.00,VWS V14.00,2013-03-15 23:03:00,
2013-03-15 17:07:00,55.8,20.5,0.00,SSE,147,3.1,4.9,25,0.00,,---,0.00,VWS V14.00,2013-03-15 23:07:00,
2013-03-15 17:08:00,55.8,20.5,0.00,SE,124,4.9,5.4,25,0.00,,---,0.00,VWS V14.00,2013-03-15 23:08:00,
2013-03-15 17:12:00,55.8,20.5,0.00,SSE,154,4.9,10.1,25,0.00,,---,0.00,VWS V14.00,2013-03-15 23:12:00,
2013-03-15 17:13:00,55.6,20.3,0.00,ESE,117,4.9,4.9,25,0.00,,---,0.00,VWS V14.00,2013-03-15 23:13:00,
2013-03-15 17:17:00,55.6,20.3,0.00,SE,131,4.0,4.9,25,0.00,,---,0.00,VWS V14.00,2013-03-15 23:17:00,
2013-03-15 17:18:00,55.6,20.3,0.00,SW,227,3.1,3.1,25,0.00,,---,0.00,VWS V14.00,2013-03-15 23:18:00,
2013-03-15 17:22:00,55.2,21.0,0.00,WSW,238,3.1,5.8,26,0.00,,---,0.00,VWS V14.00,2013-03-15 23:22:00,
2013-03-15 17:23:00,55.2,21.0,0.00,SE,140,5.8,5.8,26,0.00,,---,0.00,VWS V14.00,2013-03-15 23:23:00,
2013-03-15 17:24:00,55.2,21.0,0.00,ESE,102,6.3,6.3,26,0.00,,---,0.00,VWS V14.00,2013-03-15 23:24:00,
2013-03-15 17:27:00,55.0,20.8,0.00,NE,55,4.0,5.4,26,0.00,,---,0.00,VWS V14.00,2013-03-15 23:27:00,
2013-03-15 17:29:00,55.0,20.8,0.00,SE,130,8.3,9.6,26,0.00,,---,0.00,VWS V14.00,2013-03-15 23:29:00,
2013-03-15 17:32:00,54.7,20.5,0.00,South,185,2.2,2.7,26,0.00,,---,0.00,VWS V14.00,2013-03-15 23:32:00,
2013-03-15 17:33:00,54.7,20.5,0.00,SE,146,2.7,2.7,26,0.00,,---,0.00,VWS V14.00,2013-03-15 23:33:00,
2013-03-15 17:34:00,54.7,20.5,0.00,NE,43,7.6,8.7,26,0.00,,---,0.00,VWS V14.00,2013-03-15 23:34:00,
2013-03-15 17:37:00,54.5,20.3,0.00,SE,126,4.0,5.8,26,0.00,,---,0.00,VWS V14.00,2013-03-15 23:37:00,
2013-03-15 17:38:00,54.5,20.3,0.00,East,88,6.7,6.7,26,0.00,,---,0.00,VWS V14.00,2013-03-15 23:38:00,
2013-03-15 17:39:00,54.5,20.3,0.00,SE,134,5.8,8.7,26,0.00,,---,0.00,VWS V14.00,2013-03-15 23:39:00,
2013-03-15 17:43:00,54.3,20.2,0.00,ESE,102,4.9,8.7,26,0.00,,---,0.00,VWS V14.00,2013-03-15 23:43:00,
2013-03-15 17:44:00,54.3,20.2,0.00,ESE,116,7.6,7.6,26,0.00,,---,0.00,VWS V14.00,2013-03-15 23:44:00,
2013-03-15 17:48:00,54.1,20.0,0.00,SSE,153,3.1,8.7,26,0.00,,---,0.00,VWS V14.00,2013-03-15 23:48:00,
2013-03-15 17:49:00,54.0,19.9,0.00,ESE,102,3.1,6.3,26,0.00,,---,0.00,VWS V14.00,2013-03-15 23:49:00,
2013-03-15 17:53:00,53.8,19.7,0.00,SSW,196,0.0,3.6,26,0.00,,---,0.00,VWS V14.00,2013-03-15 23:53:00,
2013-03-15 17:54:00,53.6,19.6,0.00,SE,140,4.0,4.0,26,0.00,,---,0.00,VWS V14.00,2013-03-15 23:54:00,
2013-03-15 17:58:00,53.4,19.4,0.00,SE,131,4.9,5.8,26,0.00,,---,0.00,VWS V14.00,2013-03-15 23:58:00,
2013-03-15 17:59:00,53.2,19.3,0.00,SSE,149,5.4,5.4,26,0.00,,---,0.00,VWS V14.00,2013-03-15 23:59:00,
2013-03-15 18:03:00,53.1,19.1,0.00,South,173,0.0,5.4,26,0.00,,---,0.00,VWS V14.00,2013-03-16 00:03:00,
2013-03-15 18:04:00,52.9,19.0,0.00,South,187,3.1,4.0,26,0.00,,---,0.00,VWS V14.00,2013-03-16 00:04:00,
2013-03-15 18:08:00,52.5,18.6,0.00,SW,214,0.0,2.7,26,0.00,,---,0.00,VWS V14.00,2013-03-16 00:08:00,
2013-03-15 18:09:00,52.5,18.6,0.00,South,183,0.0,2.7,26,0.00,,---,0.00,VWS V14.00,2013-03-16 00:09:00,
2013-03-15 18:13:00,52.2,18.3,0.00,ESE,115,8.1,13.2,26,0.00,,---,0.00,VWS V14.00,2013-03-16 00:13:00,
2013-03-15 18:14:00,52.2,18.3,0.00,ENE,58,4.9,13.2,26,0.00,,---,0.00,VWS V14.00,2013-03-16 00:14:00,
2013-03-15 18:19:00,52.0,18.2,0.00,SE,140,4.0,10.1,26,0.00,,---,0.00,VWS V14.00,2013-03-16 00:19:00,
2013-03-15 18:24:00,51.6,17.9,0.00,East,94,4.0,4.0,26,0.00,,---,0.00,VWS V14.00,2013-03-16 00:24:00,
2013-03-15 18:29:00,51.4,17.7,0.00,SE,140,2.7,5.4,26,0.00,,---,0.00,VWS V14.00,2013-03-16 00:29:00,
2013-03-15 18:34:00,51.3,17.6,0.00,NE,49,3.1,3.1,26,0.00,,---,0.00,VWS V14.00,2013-03-16 00:34:00,
2013-03-15 18:35:00,51.1,17.4,0.00,ENE,64,3.6,5.4,26,0.00,,---,0.00,VWS V14.00,2013-03-16 00:35:00,
2013-03-15 18:39:00,50.9,17.2,0.00,ESE,120,4.0,6.3,26,0.00,,---,0.00,VWS V14.00,2013-03-16 00:39:00,
2013-03-15 18:40:00,50.7,17.1,0.00,ESE,122,5.8,5.8,26,0.00,,---,0.00,VWS V14.00,2013-03-16 00:40:00,
2013-03-15 18:44:00,50.5,17.0,0.00,ENE,78,8.3,8.3,26,0.00,,---,0.00,VWS V14.00,2013-03-16 00:44:00,
2013-03-15 18:45:00,50.5,17.0,0.00,SW,216,0.0,5.8,26,0.00,,---,0.00,VWS V14.00,2013-03-16 00:45:00,
2013-03-15 18:49:00,50.2,16.6,0.00,East,80,4.9,4.9,26,0.00,,---,0.00,VWS V14.00,2013-03-16 00:49:00,
2013-03-15 18:50:00,50.2,16.6,0.00,SSW,194,2.7,2.7,26,0.00,,---,0.00,VWS V14.00,2013-03-16 00:50:00,
2013-03-15 18:54:00,50.0,16.5,0.00,SE,138,0.0,0.0,26,0.00,,---,0.00,VWS V14.00,2013-03-16 00:54:00,
2013-03-15 18:55:00,50.0,16.5,0.00,SE,138,0.0,0.0,26,0.00,,---,0.00,VWS V14.00,2013-03-16 00:55:00,
2013-03-15 18:59:00,49.8,17.2,0.00,ESE,121,0.0,2.2,27,0.00,,---,0.00,VWS V14.00,2013-03-16 00:59:00,
2013-03-15 19:00:00,49.8,17.2,0.00,ESE,121,0.0,0.0,27,0.00,,---,0.00,VWS V14.00,2013-03-16 01:00:00,
2013-03-15 19:01:00,49.6,17.0,0.00,ESE,121,0.0,0.0,27,0.00,,---,0.00,VWS V14.00,2013-03-16 01:01:00,
2013-03-15 19:04:00,49.5,16.9,0.00,ENE,66,0.0,0.0,27,0.00,,---,0.00,VWS V14.00,2013-03-16 01:04:00,
2013-03-15 19:05:00,49.5,16.9,0.00,ENE,66,0.0,0.0,27,0.00,,---,0.00,VWS V14.00,2013-03-16 01:05:00,
2013-03-15 19:06:00,49.5,16.9,0.00,ENE,66,0.0,0.0,27,0.00,,---,0.00,VWS V14.00,2013-03-16 01:06:00,
2013-03-15 19:09:00,49.3,16.7,0.00,SE,142,0.0,0.0,27,0.00,,---,0.00,VWS V14.00,2013-03-16 01:09:00,
2013-03-15 19:10:00,49.1,16.6,0.00,SE,142,0.0,0.0,27,0.00,,---,0.00,VWS V14.00,2013-03-16 01:10:00,
2013-03-15 19:11:00,49.1,16.6,0.00,SE,142,0.0,0.0,27,0.00,,---,0.00,VWS V14.00,2013-03-16 01:11:00,
2013-03-15 19:15:00,48.9,16.4,0.00,SE,142,0.0,0.0,27,0.00,,---,0.00,VWS V14.00,2013-03-16 01:15:00,
2013-03-15 19:16:00,48.7,16.3,0.00,SE,142,0.0,0.0,27,0.00,,---,0.00,VWS V14.00,2013-03-16 01:16:00,
2013-03-15 19:20:00,48.6,16.1,0.00,SE,142,0.0,0.0,27,0.00,,---,0.00,VWS V14.00,2013-03-16 01:20:00,
2013-03-15 19:21:00,48.6,16.1,0.00,SE,142,0.0,0.0,27,0.00,,---,0.00,VWS V14.00,2013-03-16 01:21:00,
2013-03-15 19:25:00,48.2,15.8,0.00,SE,142,0.0,0.0,27,0.00,,---,0.00,VWS V14.00,2013-03-16 01:25:00,
2013-03-15 19:26:00,48.2,15.8,0.00,SE,142,0.0,0.0,27,0.00,,---,0.00,VWS V14.00,2013-03-16 01:26:00,
2013-03-15 19:30:00,47.8,15.5,0.00,SE,142,0.0,0.0,27,0.00,,---,0.00,VWS V14.00,2013-03-16 01:30:00,
2013-03-15 19:31:00,47.8,15.5,0.00,SE,142,0.0,0.0,27,0.00,,---,0.00,VWS V14.00,2013-03-16 01:31:00,
2013-03-15 19:32:00,47.8,15.5,0.00,SE,142,0.0,0.0,27,0.00,,---,0.00,VWS V14.00,2013-03-16 01:32:00,
2013-03-15 19:35:00,47.5,15.2,0.00,SE,142,0.0,0.0,27,0.00,,---,0.00,VWS V14.00,2013-03-16 01:35:00,
2013-03-15 19:37:00,47.3,15.0,0.00,SE,143,0.0,0.0,27,0.00,,---,0.00,VWS V14.00,2013-03-16 01:37:00,
2013-03-15 19:40:00,47.1,14.9,0.00,SE,143,0.0,0.0,27,0.00,,---,0.00,VWS V14.00,2013-03-16 01:40:00,
2013-03-15 19:42:00,46.9,14.7,0.00,SE,143,0.0,0.0,27,0.00,,---,0.00,VWS V14.00,2013-03-16 01:42:00,
2013-03-15 19:45:00,46.8,14.6,0.00,SE,124,0.0,0.0,27,0.00,,---,0.00,VWS V14.00,2013-03-16 01:45:00,
2013-03-15 19:46:00,46.8,14.6,0.00,SSE,148,0.0,0.0,27,0.00,,---,0.00,VWS V14.00,2013-03-16 01:46:00,
2013-03-15 19:47:00,46.6,14.4,0.00,SSE,148,0.0,0.0,27,0.00,,---,0.00,VWS V14.00,2013-03-16 01:47:00,
2013-03-15 19:50:00,46.4,14.2,0.00,SSE,148,0.0,0.0,27,0.00,,---,0.00,VWS V14.00,2013-03-16 01:50:00,
2013-03-15 19:51:00,46.4,14.2,0.00,SSE,148,0.0,0.0,27,0.00,,---,0.00,VWS V14.00,2013-03-16 01:51:00,
2013-03-15 19:52:00,46.2,14.9,0.00,SSE,148,0.0,0.0,28,0.00,,---,0.00,VWS V14.00,2013-03-16 01:52:00,
2013-03-15 19:55:00,45.9,14.6,0.00,SSE,148,0.0,0.0,28,0.00,,---,0.00,VWS V14.00,2013-03-16 01:55:00,
2013-03-15 19:56:00,46.0,14.8,0.00,SSE,148,0.0,0.0,28,0.00,,---,0.00,VWS V14.00,2013-03-16 01:56:00,
2013-03-15 19:57:00,45.9,14.6,0.00,SSE,148,0.0,0.0,28,0.00,,---,0.00,VWS V14.00,2013-03-16 01:57:00,
2013-03-15 20:01:00,45.7,14.5,0.00,SSW,197,0.0,0.0,28,0.00,,---,0.00,VWS V14.00,2013-03-16 02:01:00,
2013-03-15 20:02:00,45.5,14.3,0.00,SSW,197,0.0,0.0,28,0.00,,---,0.00,VWS V14.00,2013-03-16 02:02:00,
2013-03-15 20:06:00,45.3,14.1,0.00,SSW,197,0.0,0.0,28,0.00,,---,0.00,VWS V14.00,2013-03-16 02:06:00,
2013-03-15 20:07:00,45.1,14.0,0.00,SSW,197,0.0,0.0,28,0.00,,---,0.00,VWS V14.00,2013-03-16 02:07:00,
2013-03-15 20:11:00,44.8,13.7,0.00,SSW,197,0.0,0.0,28,0.00,,---,0.00,VWS V14.00,2013-03-16 02:11:00,
2013-03-15 20:12:00,44.8,13.7,0.00,SSW,197,0.0,0.0,28,0.00,,---,0.00,VWS V14.00,2013-03-16 02:12:00,
2013-03-15 20:17:00,44.4,14.2,0.00,SSW,197,0.0,0.0,29,0.00,,---,0.00,VWS V14.00,2013-03-16 02:17:00,
2013-03-15 20:18:00,44.4,14.2,0.00,SSW,197,0.0,0.0,29,0.00,,---,0.00,VWS V14.00,2013-03-16 02:18:00,
2013-03-15 20:22:00,44.1,13.9,0.00,SSW,198,0.0,0.0,29,0.00,,---,0.00,VWS V14.00,2013-03-16 02:22:00,
2013-03-15 20:23:00,44.1,13.9,0.00,SSW,197,0.0,0.0,29,0.00,,---,0.00,VWS V14.00,2013-03-16 02:23:00,
2013-03-15 20:27:00,43.7,13.5,0.00,SSW,197,0.0,0.0,29,0.00,,---,0.00,VWS V14.00,2013-03-16 02:27:00,
2013-03-15 20:28:00,43.7,13.5,0.00,SSW,197,0.0,0.0,29,0.00,,---,0.00,VWS V14.00,2013-03-16 02:28:00,
2013-03-15 20:32:00,43.3,13.2,0.00,SSW,197,0.0,0.0,29,0.00,,---,0.00,VWS V14.00,2013-03-16 02:32:00,
2013-03-15 20:33:00,43.3,13.2,0.00,SSW,198,0.0,0.0,29,0.00,,---,0.00,VWS V14.00,2013-03-16 02:33:00,
2013-03-15 20:37:00,43.0,12.9,0.00,West,273,0.0,0.0,29,0.00,,---,0.00,VWS V14.00,2013-03-16 02:37:00,
2013-03-15 20:38:00,43.0,12.9,0.00,West,273,0.0,0.0,29,0.00,,---,0.00,VWS V14.00,2013-03-16 02:38:00,
2013-03-15 20:39:00,43.0,12.9,0.00,WSW,256,0.0,0.0,29,0.00,,---,0.00,VWS V14.00,2013-03-16 02:39:00,
2013-03-15 20:42:00,42.8,12.8,0.00,WNW,292,0.0,0.0,29,0.00,,---,0.00,VWS V14.00,2013-03-16 02:42:00,
2013-03-15 20:43:00,42.6,12.6,0.00,WNW,297,0.0,0.0,29,0.00,,---,0.00,VWS V14.00,2013-03-16 02:43:00,
2013-03-15 20:44:00,42.6,12.6,0.00,WNW,287,0.0,0.0,29,0.00,,---,0.00,VWS V14.00,2013-03-16 02:44:00,
2013-03-15 20:47:00,42.4,12.4,0.00,WNW,295,0.0,0.0,29,0.00,,---,0.00,VWS V14.00,2013-03-16 02:47:00,
2013-03-15 20:48:00,42.4,12.4,0.00,WNW,296,0.0,0.0,29,0.00,,---,0.00,VWS V14.00,2013-03-16 02:48:00,
2013-03-15 20:49:00,42.4,12.4,0.00,WNW,296,0.0,0.0,29,0.00,,---,0.00,VWS V14.00,2013-03-16 02:49:00,
2013-03-15 20:52:00,42.1,12.1,0.00,WNW,296,0.0,0.0,29,0.00,,---,0.00,VWS V14.00,2013-03-16 02:52:00,
2013-03-15 20:53:00,42.1,12.1,0.00,WNW,296,0.0,0.0,29,0.00,,---,0.00,VWS V14.00,2013-03-16 02:53:00,
2013-03-15 20:54:00,42.1,12.1,0.00,WNW,296,0.0,0.0,29,0.00,,---,0.00,VWS V14.00,2013-03-16 02:54:00,
2013-03-15 20:57:00,41.7,11.8,0.00,WNW,296,0.0,0.0,29,0.00,,---,0.00,VWS V14.00,2013-03-16 02:57:00,
2013-03-15 20:58:00,41.7,11.8,0.00,WNW,295,0.0,0.0,29,0.00,,---,0.00,VWS V14.00,2013-03-16 02:58:00,
2013-03-15 20:59:00,41.7,11.8,0.00,WNW,296,0.0,0.0,29,0.00,,---,0.00,VWS V14.00,2013-03-16 02:59:00,
2013-03-15 21:03:00,41.5,11.7,0.00,WNW,295,0.0,0.0,29,0.00,,---,0.00,VWS V14.00,2013-03-16 03:03:00,
2013-03-15 21:04:00,41.5,11.7,0.00,WNW,294,0.0,0.0,29,0.00,,---,0.00,VWS V14.00,2013-03-16 03:04:00,
2013-03-15 21:08:00,41.4,11.5,0.00,WNW,293,0.0,0.0,29,0.00,,---,0.00,VWS V14.00,2013-03-16 03:08:00,
2013-03-15 21:09:00,41.2,11.4,0.00,WNW,289,0.0,0.0,29,0.00,,---,0.00,VWS V14.00,2013-03-16 03:09:00,
2013-03-15 21:13:00,41.0,11.2,0.00,WNW,289,0.0,0.0,29,0.00,,---,0.00,VWS V14.00,2013-03-16 03:13:00,
2013-03-15 21:14:00,41.0,11.2,0.00,WNW,289,0.0,0.0,29,0.00,,---,0.00,VWS V14.00,2013-03-16 03:14:00,
2013-03-15 21:18:00,41.0,11.2,0.00,WNW,289,0.0,0.0,29,0.00,,---,0.00,VWS V14.00,2013-03-16 03:18:00,
2013-03-15 21:19:00,40.8,11.8,0.00,WNW,289,0.0,0.0,30,0.00,,---,0.00,VWS V14.00,2013-03-16 03:19:00,
2013-03-15 21:23:00,40.6,11.6,0.00,WNW,289,0.0,0.0,30,0.00,,---,0.00,VWS V14.00,2013-03-16 03:23:00,
2013-03-15 21:24:00,40.6,11.6,0.00,WNW,289,0.0,0.0,30,0.00,,---,0.00,VWS V14.00,2013-03-16 03:24:00,
2013-03-15 21:28:00,40.5,11.5,0.00,SE,128,0.0,2.7,30,0.00,,---,0.00,VWS V14.00,2013-03-16 03:28:00,
2013-03-15 21:29:00,40.5,11.5,0.00,East,101,3.6,3.6,30,0.00,,---,0.00,VWS V14.00,2013-03-16 03:29:00,
2013-03-15 21:34:00,40.3,11.3,0.00,ESE,112,0.0,2.7,30,0.00,,---,0.00,VWS V14.00,2013-03-16 03:34:00,
2013-03-15 21:35:00,40.3,11.3,0.00,ESE,107,2.2,3.1,30,0.00,,---,0.00,VWS V14.00,2013-03-16 03:35:00,
2013-03-15 21:39:00,40.1,11.2,0.00,ESE,113,0.0,0.0,30,0.00,,---,0.00,VWS V14.00,2013-03-16 03:39:00,
2013-03-15 21:40:00,40.1,11.2,0.00,ESE,113,0.0,0.0,30,0.00,,---,0.00,VWS V14.00,2013-03-16 03:40:00,
2013-03-15 21:44:00,39.9,11.0,0.00,ESE,113,0.0,0.0,30,0.00,,---,0.00,VWS V14.00,2013-03-16 03:44:00,
2013-03-15 21:45:00,39.9,11.0,0.00,ESE,113,0.0,0.0,30,0.00,,---,0.00,VWS V14.00,2013-03-16 03:45:00,
2013-03-15 21:49:00,39.9,11.8,0.00,SW,219,0.0,0.0,31,0.00,,---,0.00,VWS V14.00,2013-03-16 03:49:00,
2013-03-15 21:50:00,39.9,11.8,0.00,SW,225,0.0,0.0,31,0.00,,---,0.00,VWS V14.00,2013-03-16 03:50:00,
2013-03-15 21:54:00,39.7,11.6,0.00,West,270,0.0,0.0,31,0.00,,---,0.00,VWS V14.00,2013-03-16 03:54:00,
2013-03-15 21:55:00,39.7,11.6,0.00,West,270,0.0,0.0,31,0.00,,---,0.00,VWS V14.00,2013-03-16 03:55:00,
2013-03-15 21:59:00,39.6,11.4,0.00,SW,232,0.0,0.0,31,0.00,,---,0.00,VWS V14.00,2013-03-16 03:59:00,
2013-03-15 22:00:00,39.6,11.4,0.00,SW,232,0.0,0.0,31,0.00,,---,0.00,VWS V14.00,2013-03-16 04:00:00,
2013-03-15 22:05:00,39.4,11.3,0.00,WSW,251,0.0,0.0,31,0.00,,---,0.00,VWS V14.00,2013-03-16 04:05:00,
2013-03-15 22:10:00,39.4,11.3,0.00,West,281,0.0,0.0,31,0.00,,---,0.00,VWS V14.00,2013-03-16 04:10:00,
2013-03-15 22:15:00,39.2,11.1,0.00,WNW,288,0.0,0.0,31,0.00,,---,0.00,VWS V14.00,2013-03-16 04:15:00,
2013-03-15 22:20:00,39.2,11.1,0.00,WNW,292,0.0,0.0,31,0.00,,---,0.00,VWS V14.00,2013-03-16 04:20:00,
2013-03-15 22:25:00,39.0,11.7,0.00,SSE,156,0.0,2.7,32,0.00,,---,0.00,VWS V14.00,2013-03-16 04:25:00,
2013-03-15 22:30:00,39.0,11.7,0.00,SSE,156,0.0,0.0,32,0.00,,---,0.00,VWS V14.00,2013-03-16 04:30:00,
2013-03-15 22:35:00,38.8,11.5,0.00,SSW,197,0.0,0.0,32,0.00,,---,0.00,VWS V14.00,2013-03-16 04:35:00,
2013-03-15 22:36:00,38.8,11.5,0.00,SSW,197,0.0,0.0,32,0.00,,---,0.00,VWS V14.00,2013-03-16 04:36:00,
2013-03-15 22:40:00,38.7,11.4,0.00,WSW,242,0.0,0.0,32,0.00,,---,0.00,VWS V14.00,2013-03-16 04:40:00,
2013-03-15 22:41:00,38.7,11.4,0.00,WSW,240,0.0,0.0,32,0.00,,---,0.00,VWS V14.00,2013-03-16 04:41:00,
2013-03-15 22:45:00,38.7,11.4,0.00,WSW,246,0.0,0.0,32,0.00,,---,0.00,VWS V14.00,2013-03-16 04:45:00,
2013-03-15 22:46:00,38.5,11.2,0.00,WSW,246,0.0,0.0,32,0.00,,---,0.00,VWS V14.00,2013-03-16 04:46:00,
2013-03-15 22:50:00,38.5,11.2,0.00,WSW,246,0.0,0.0,32,0.00,,---,0.00,VWS V14.00,2013-03-16 04:50:00,
2013-03-15 22:51:00,38.5,11.2,0.00,WSW,246,0.0,0.0,32,0.00,,---,0.00,VWS V14.00,2013-03-16 04:51:00,
2013-03-15 22:52:00,38.5,11.2,0.00,WSW,246,0.0,0.0,32,0.00,,---,0.00,VWS V14.00,2013-03-16 04:52:00,
2013-03-15 22:55:00,38.3,11.0,0.00,WSW,246,0.0,0.0,32,0.00,,---,0.00,VWS V14.00,2013-03-16 04:55:00,
2013-03-15 22:56:00,38.3,11.0,0.00,WSW,246,0.0,0.0,32,0.00,,---,0.00,VWS V14.00,2013-03-16 04:56:00,
2013-03-15 22:57:00,38.3,11.0,0.00,WSW,246,0.0,0.0,32,0.00,,---,0.00,VWS V14.00,2013-03-16 04:57:00,
2013-03-15 23:00:00,38.1,10.9,0.00,West,271,0.0,0.0,32,0.00,,---,0.00,VWS V14.00,2013-03-16 05:00:00,
2013-03-15 23:01:00,38.1,10.9,0.00,West,274,0.0,0.0,32,0.00,,---,0.00,VWS V14.00,2013-03-16 05:01:00,
2013-03-15 23:02:00,38.1,10.9,0.00,West,274,0.0,0.0,32,0.00,,---,0.00,VWS V14.00,2013-03-16 05:02:00,
2013-03-15 23:05:00,37.9,11.4,0.00,West,274,0.0,0.0,33,0.00,,---,0.00,VWS V14.00,2013-03-16 05:05:00,
2013-03-15 23:06:00,37.9,11.4,0.00,West,268,0.0,0.0,33,0.00,,---,0.00,VWS V14.00,2013-03-16 05:06:00,
2013-03-15 23:07:00,37.9,11.4,0.00,West,274,0.0,0.0,33,0.00,,---,0.00,VWS V14.00,2013-03-16 05:07:00,
2013-03-15 23:10:00,37.9,11.4,0.00,West,271,0.0,0.0,33,0.00,,---,0.00,VWS V14.00,2013-03-16 05:10:00,
2013-03-15 23:11:00,37.9,11.4,0.00,West,272,0.0,0.0,33,0.00,,---,0.00,VWS V14.00,2013-03-16 05:11:00,
2013-03-15 23:12:00,37.9,11.4,0.00,West,275,0.0,0.0,33,0.00,,---,0.00,VWS V14.00,2013-03-16 05:12:00,
2013-03-15 23:15:00,37.8,11.3,0.00,West,276,0.0,0.0,33,0.00,,---,0.00,VWS V14.00,2013-03-16 05:15:00,
2013-03-15 23:16:00,37.8,11.3,0.00,West,276,0.0,0.0,33,0.00,,---,0.00,VWS V14.00,2013-03-16 05:16:00,
2013-03-15 23:17:00,37.6,11.1,0.00,West,276,0.0,0.0,33,0.00,,---,0.00,VWS V14.00,2013-03-16 05:17:00,
2013-03-15 23:20:00,37.6,11.1,0.00,West,265,0.0,0.0,33,0.00,,---,0.00,VWS V14.00,2013-03-16 05:20:00,
2013-03-15 23:21:00,37.6,11.1,0.00,West,267,0.0,0.0,33,0.00,,---,0.00,VWS V14.00,2013-03-16 05:21:00,
2013-03-15 23:22:00,37.6,11.1,0.00,West,267,0.0,0.0,33,0.00,,---,0.00,VWS V14.00,2013-03-16 05:22:00,
2013-03-15 23:25:00,37.4,10.9,0.00,West,270,0.0,0.0,33,0.00,,---,0.00,VWS V14.00,2013-03-16 05:25:00,
2013-03-15 23:26:00,37.4,10.9,0.00,West,270,0.0,0.0,33,0.00,,---,0.00,VWS V14.00,2013-03-16 05:26:00,
2013-03-15 23:27:00,37.4,10.9,0.00,West,270,0.0,0.0,33,0.00,,---,0.00,VWS V14.00,2013-03-16 05:27:00,
2013-03-15 23:28:00,37.4,10.9,0.00,West,270,0.0,0.0,33,0.00,,---,0.00,VWS V14.00,2013-03-16 05:28:00,
2013-03-15 23:30:00,37.2,11.4,0.00,West,270,0.0,0.0,34,0.00,,---,0.00,VWS V14.00,2013-03-16 05:30:00,
2013-03-15 23:31:00,37.2,11.4,0.00,West,270,0.0,0.0,34,0.00,,---,0.00,VWS V14.00,2013-03-16 05:31:00,
2013-03-15 23:32:00,37.2,11.4,0.00,West,269,0.0,0.0,34,0.00,,---,0.00,VWS V14.00,2013-03-16 05:32:00,
2013-03-15 23:33:00,37.2,11.4,0.00,West,269,0.0,0.0,34,0.00,,---,0.00,VWS V14.00,2013-03-16 05:33:00,
2013-03-15 23:36:00,37.0,11.3,0.00,West,270,0.0,0.0,34,0.00,,---,0.00,VWS V14.00,2013-03-16 05:36:00,
2013-03-15 23:37:00,37.0,11.3,0.00,West,270,0.0,0.0,34,0.00,,---,0.00,VWS V14.00,2013-03-16 05:37:00,
2013-03-15 23:38:00,37.0,11.3,0.00,West,263,0.0,0.0,34,0.00,,---,0.00,VWS V14.00,2013-03-16 05:38:00,
2013-03-15 23:42:00,36.9,11.1,0.00,West,270,0.0,0.0,34,0.00,,---,0.00,VWS V14.00,2013-03-16 05:42:00,
2013-03-15 23:43:00,36.9,11.1,0.00,West,270,0.0,0.0,34,0.00,,---,0.00,VWS V14.00,2013-03-16 05:43:00,
2013-03-15 23:47:00,36.7,11.0,0.00,West,265,0.0,0.0,34,0.00,,---,0.00,VWS V14.00,2013-03-16 05:47:00,
2013-03-15 23:48:00,36.7,11.0,0.00,West,268,0.0,0.0,34,0.00,,---,0.00,VWS V14.00,2013-03-16 05:48:00,
2013-03-15 23:52:00,36.7,11.0,0.00,West,263,0.0,0.0,34,0.00,,---,0.00,VWS V14.00,2013-03-16 05:52:00,
2013-03-15 23:53:00,36.7,11.0,0.00,West,263,0.0,0.0,34,0.00,,---,0.00,VWS V14.00,2013-03-16 05:53:00,
2013-03-15 23:58:00,36.5,11.5,0.00,West,269,0.0,0.0,35,0.00,,---,0.00,VWS V14.00,2013-03-16 05:58:00,